Time,TemperatureF,DewpointF,PressureIn,WindDirection,WindDirectionDegrees,WindSpeedMPH,WindSpeedGustMPH,Humidity,HourlyPrecipIn,Conditions,Clouds,dailyrainin,SoftwareType,DateUTC
2013-03-09 00:01:00,29.7,22.1,30.28,NE,39,0.0,0.0,73,0.00,,SCT,0.00,WeatherDisplay:10.37,2013-03-09 05:01:00,
2013-03-09 00:04:00,29.5,21.9,30.28,NE,39,0.0,0.0,73,0.00,,SCT,0.00,WeatherDisplay:10.37,2013-03-09 05:04:00,
2013-03-09 00:06:00,29.4,21.8,30.28,NE,39,0.0,0.0,73,0.00,,SCT,0.00,WeatherDisplay:10.37,2013-03-09 05:06:00,
2013-03-09 00:11:00,29.1,21.5,30.28,NE,39,0.0,0.0,73,0.00,,SCT,0.00,WeatherDisplay:10.37,2013-03-09 05:11:00,
2013-03-09 00:16:00,28.8,21.2,30.28,NE,39,0.0,0.0,73,0.00,,SCT,0.00,WeatherDisplay:10.37,2013-03-09 05:16:00,
2013-03-09 00:17:00,28.8,21.2,30.28,NE,39,0.0,0.0,73,0.00,,SCT,0.00,WeatherDisplay:10.37,2013-03-09 05:17:00,
2013-03-09 00:18:00,28.7,21.1,30.28,NE,39,0.0,0.0,73,0.00,,SCT,0.00,WeatherDisplay:10.37,2013-03-09 05:18:00,
2013-03-09 00:22:00,28.4,20.8,30.29,NE,39,0.0,0.0,73,0.00,,SCT,0.00,WeatherDisplay:10.37,2013-03-09 05:22:00,
2013-03-09 00:24:00,28.2,20.7,30.29,NE,39,0.0,0.0,73,0.00,,SCT,0.00,WeatherDisplay:10.37,2013-03-09 05:24:00,
2013-03-09 00:25:00,28.1,20.6,30.28,NE,39,0.0,0.0,73,0.00,,SCT,0.00,WeatherDisplay:10.37,2013-03-09 05:25:00,
2013-03-09 00:27:00,28.1,20.6,30.28,NE,39,0.0,0.0,73,0.00,,SCT,0.00,WeatherDisplay:10.37,2013-03-09 05:27:00,
2013-03-09 00:29:00,27.9,20.7,30.28,NE,39,0.0,0.0,74,0.00,,SCT,0.00,WeatherDisplay:10.37,2013-03-09 05:29:00,
2013-03-09 00:30:00,27.9,20.7,30.28,NE,39,0.0,0.0,74,0.00,,SCT,0.00,WeatherDisplay:10.37,2013-03-09 05:30:00,
2013-03-09 00:32:00,27.9,20.7,30.28,NE,39,0.0,0.0,74,0.00,,SCT,0.00,WeatherDisplay:10.37,2013-03-09 05:32:00,
2013-03-09 00:33:00,27.9,20.7,30.27,NE,39,0.0,0.0,74,0.00,,SCT,0.00,WeatherDisplay:10.37,2013-03-09 05:33:00,
2013-03-09 00:36:00,27.8,20.6,30.27,NE,39,0.0,0.0,74,0.00,,SCT,0.00,WeatherDisplay:10.37,2013-03-09 05:36:00,
2013-03-09 00:38:00,27.6,20.4,30.27,NE,39,0.0,0.0,74,0.00,,SCT,0.00,WeatherDisplay:10.37,2013-03-09 05:38:00,
2013-03-09 00:40:00,27.6,20.7,30.27,NE,39,0.0,0.0,75,0.00,,SCT,0.00,WeatherDisplay:10.37,2013-03-09 05:40:00,
2013-03-09 00:41:00,27.5,20.6,30.27,NE,39,0.0,0.0,75,0.00,,SCT,0.00,WeatherDisplay:10.37,2013-03-09 05:41:00,
2013-03-09 00:45:00,27.5,20.6,30.27,NE,39,0.0,0.0,75,0.00,,SCT,0.00,WeatherDisplay:10.37,2013-03-09 05:45:00,
2013-03-09 00:46:00,27.5,20.6,30.27,NE,39,0.0,0.0,75,0.00,,SCT,0.00,WeatherDisplay:10.37,2013-03-09 05:46:00,
2013-03-09 00:47:00,27.3,20.4,30.27,NE,39,0.0,0.0,75,0.00,,SCT,0.00,WeatherDisplay:10.37,2013-03-09 05:47:00,
2013-03-09 00:49:00,27.3,20.4,30.27,NE,39,0.0,0.0,75,0.00,,SCT,0.00,WeatherDisplay:10.37,2013-03-09 05:49:00,
2013-03-09 00:51:00,27.2,20.3,30.27,NE,39,0.0,0.0,75,0.00,,SCT,0.00,WeatherDisplay:10.37,2013-03-09 05:51:00,
2013-03-09 00:52:00,27.2,20.3,30.27,NE,39,0.0,0.0,75,0.00,,SCT,0.00,WeatherDisplay:10.37,2013-03-09 05:52:00,
2013-03-09 00:54:00,27.2,20.3,30.27,NE,39,0.0,0.0,75,0.00,,SCT,0.00,WeatherDisplay:10.37,2013-03-09 05:54:00,
2013-03-09 00:58:00,27.2,20.3,30.27,NE,39,0.0,0.0,75,0.00,,SCT,0.00,WeatherDisplay:10.37,2013-03-09 05:58:00,
2013-03-09 00:59:00,27.0,20.1,30.27,NE,39,0.0,0.0,75,0.00,,SCT,0.00,WeatherDisplay:10.37,2013-03-09 05:59:00,
2013-03-09 01:00:00,27.2,20.3,30.27,NE,39,0.0,0.0,75,0.00,,SCT,0.00,WeatherDisplay:10.37,2013-03-09 06:00:00,
2013-03-09 01:01:00,27.2,20.3,30.27,NE,39,0.0,0.0,75,0.00,,SCT,0.00,WeatherDisplay:10.37,2013-03-09 06:01:00,
2013-03-09 01:05:00,27.2,20.6,30.26,NE,39,0.0,0.0,76,0.00,,SCT,0.00,WeatherDisplay:10.37,2013-03-09 06:05:00,
2013-03-09 01:06:00,27.2,20.6,30.26,NE,39,0.0,0.0,76,0.00,,SCT,0.00,WeatherDisplay:10.37,2013-03-09 06:06:00,
2013-03-09 01:07:00,27.2,20.6,30.26,NE,39,0.0,0.0,76,0.00,,SCT,0.00,WeatherDisplay:10.37,2013-03-09 06:07:00,
2013-03-09 01:08:00,27.2,20.6,30.26,NE,39,0.0,0.0,76,0.00,,SCT,0.00,WeatherDisplay:10.37,2013-03-09 06:08:00,
2013-03-09 01:12:00,27.2,20.3,30.26,NE,39,0.0,0.0,75,0.00,,SCT,0.00,WeatherDisplay:10.37,2013-03-09 06:12:00,
2013-03-09 01:13:00,27.2,20.6,30.26,NE,39,0.0,0.0,76,0.00,,SCT,0.00,WeatherDisplay:10.37,2013-03-09 06:13:00,
2013-03-09 01:15:00,27.2,20.6,30.26,NE,39,0.0,0.0,76,0.00,,SCT,0.00,WeatherDisplay:10.37,2013-03-09 06:15:00,
2013-03-09 01:18:00,27.2,20.6,30.26,NE,39,0.0,0.0,76,0.00,,SCT,0.00,WeatherDisplay:10.37,2013-03-09 06:18:00,
2013-03-09 01:19:00,27.2,20.6,30.26,NE,39,0.0,0.0,76,0.00,,SCT,0.00,WeatherDisplay:10.37,2013-03-09 06:19:00,
2013-03-09 01:20:00,27.2,20.6,30.26,NE,39,0.0,0.0,76,0.00,,SCT,0.00,WeatherDisplay:10.37,2013-03-09 06:20:00,
2013-03-09 01:23:00,27.2,20.6,30.26,NE,39,0.0,0.0,76,0.00,,SCT,0.00,WeatherDisplay:10.37,2013-03-09 06:23:00,
2013-03-09 01:25:00,27.2,20.6,30.26,NE,39,0.0,0.0,76,0.00,,SCT,0.00,WeatherDisplay:10.37,2013-03-09 06:25:00,
2013-03-09 01:28:00,27.2,20.6,30.26,NE,39,0.0,0.0,76,0.00,,SCT,0.00,WeatherDisplay:10.37,2013-03-09 06:28:00,
2013-03-09 01:29:00,27.2,20.6,30.26,NE,39,0.0,0.0,76,0.00,,SCT,0.00,WeatherDisplay:10.37,2013-03-09 06:29:00,
2013-03-09 01:30:00,27.2,20.6,30.27,NE,39,0.0,0.0,76,0.00,,SCT,0.00,WeatherDisplay:10.37,2013-03-09 06:30:00,
2013-03-09 01:34:00,27.3,20.7,30.27,NE,39,0.0,0.0,76,0.00,,SCT,0.00,WeatherDisplay:10.37,2013-03-09 06:34:00,
2013-03-09 01:35:00,27.3,20.7,30.27,NE,39,0.0,0.0,76,0.00,,SCT,0.00,WeatherDisplay:10.37,2013-03-09 06:35:00,
2013-03-09 01:38:00,27.3,20.7,30.27,NE,39,0.0,0.0,76,0.00,,SCT,0.00,WeatherDisplay:10.37,2013-03-09 06:38:00,
2013-03-09 01:40:00,27.3,20.7,30.27,NE,39,0.0,0.0,76,0.00,,SCT,0.00,WeatherDisplay:10.37,2013-03-09 06:40:00,
2013-03-09 01:42:00,27.2,20.6,30.27,NE,39,0.0,0.0,76,0.00,,SCT,0.00,WeatherDisplay:10.37,2013-03-09 06:42:00,
2013-03-09 01:45:00,27.0,20.1,30.27,NE,39,0.0,0.0,75,0.00,,SCT,0.00,WeatherDisplay:10.37,2013-03-09 06:45:00,
2013-03-09 01:46:00,27.0,20.1,30.27,NE,39,0.0,0.0,75,0.00,,SCT,0.00,WeatherDisplay:10.37,2013-03-09 06:46:00,
2013-03-09 01:48:00,27.0,20.1,30.27,NE,39,0.0,0.0,75,0.00,,SCT,0.00,WeatherDisplay:10.37,2013-03-09 06:48:00,
2013-03-09 01:50:00,26.9,20.0,30.27,NE,39,0.0,0.0,75,0.00,,SCT,0.00,WeatherDisplay:10.37,2013-03-09 06:50:00,
2013-03-09 01:53:00,26.7,19.8,30.27,NE,39,0.0,0.0,75,0.00,,SCT,0.00,WeatherDisplay:10.37,2013-03-09 06:53:00,
2013-03-09 01:54:00,26.7,19.8,30.26,NE,39,0.0,0.0,75,0.00,,SCT,0.00,WeatherDisplay:10.37,2013-03-09 06:54:00,
2013-03-09 01:56:00,26.7,19.8,30.26,NE,39,0.0,0.0,75,0.00,,SCT,0.00,WeatherDisplay:10.37,2013-03-09 06:56:00,
2013-03-09 01:59:00,26.4,19.5,30.27,NE,39,0.0,0.0,75,0.00,,SCT,0.00,WeatherDisplay:10.37,2013-03-09 06:59:00,
2013-03-09 02:01:00,26.3,19.5,30.27,NE,39,0.0,0.0,75,0.00,,SCT,0.00,WeatherDisplay:10.37,2013-03-09 07:01:00,
2013-03-09 02:02:00,26.3,19.5,30.26,NE,39,0.0,0.0,75,0.00,,SCT,0.00,WeatherDisplay:10.37,2013-03-09 07:02:00,
2013-03-09 02:04:00,26.1,19.3,30.26,NE,39,0.0,0.0,75,0.00,,SCT,0.00,WeatherDisplay:10.37,2013-03-09 07:04:00,
2013-03-09 02:06:00,26.0,19.2,30.26,NE,39,0.0,0.0,75,0.00,,SCT,0.00,WeatherDisplay:10.37,2013-03-09 07:06:00,
2013-03-09 02:08:00,25.8,19.0,30.25,NE,39,0.0,0.0,75,0.00,,SCT,0.00,WeatherDisplay:10.37,2013-03-09 07:08:00,
2013-03-09 02:09:00,25.8,19.0,30.25,NE,39,0.0,0.0,75,0.00,,SCT,0.00,WeatherDisplay:10.37,2013-03-09 07:09:00,
2013-03-09 02:11:00,25.8,19.0,30.25,NE,39,0.0,0.0,75,0.00,,SCT,0.00,WeatherDisplay:10.37,2013-03-09 07:11:00,
2013-03-09 02:13:00,25.7,18.9,30.25,NE,39,0.0,0.0,75,0.00,,SCT,0.00,WeatherDisplay:10.37,2013-03-09 07:13:00,
2013-03-09 02:18:00,25.6,19.1,30.25,NE,39,0.0,0.0,76,0.00,,SCT,0.00,WeatherDisplay:10.37,2013-03-09 07:18:00,
2013-03-09 02:22:00,25.6,19.1,30.25,NE,39,0.0,0.0,76,0.00,,SCT,0.00,WeatherDisplay:10.37,2013-03-09 07:22:00,
2013-03-09 02:23:00,25.6,19.1,30.25,NE,39,0.0,0.0,76,0.00,,SCT,0.00,WeatherDisplay:10.37,2013-03-09 07:23:00,
2013-03-09 02:25:00,25.6,19.1,30.25,NE,39,0.0,0.0,76,0.00,,SCT,0.00,WeatherDisplay:10.37,2013-03-09 07:25:00,
2013-03-09 02:28:00,25.7,19.5,30.25,NE,39,0.0,0.0,77,0.00,,SCT,0.00,WeatherDisplay:10.37,2013-03-09 07:28:00,
2013-03-09 02:33:00,25.6,19.1,30.25,NE,39,0.0,0.0,76,0.00,,SCT,0.00,WeatherDisplay:10.37,2013-03-09 07:33:00,
2013-03-09 02:34:00,25.6,19.1,30.25,NE,39,0.0,0.0,76,0.00,,SCT,0.00,WeatherDisplay:10.37,2013-03-09 07:34:00,
2013-03-09 02:37:00,25.6,19.4,30.25,NE,39,0.0,0.0,77,0.00,,SCT,0.00,WeatherDisplay:10.37,2013-03-09 07:37:00,
2013-03-09 02:39:00,25.7,19.5,30.25,NE,39,0.0,0.0,77,0.00,,SCT,0.00,WeatherDisplay:10.37,2013-03-09 07:39:00,
2013-03-09 02:40:00,25.7,19.5,30.25,NE,39,0.0,0.0,77,0.00,,SCT,0.00,WeatherDisplay:10.37,2013-03-09 07:40:00,
2013-03-09 02:45:00,25.6,19.4,30.25,NE,39,0.0,0.0,77,0.00,,SCT,0.00,WeatherDisplay:10.37,2013-03-09 07:45:00,
2013-03-09 02:46:00,25.6,19.1,30.25,NE,39,0.0,0.0,76,0.00,,SCT,0.00,WeatherDisplay:10.37,2013-03-09 07:46:00,
2013-03-09 02:51:00,25.6,19.1,30.25,NE,39,0.0,0.0,76,0.00,,SCT,0.00,WeatherDisplay:10.37,2013-03-09 07:51:00,
2013-03-09 02:54:00,25.6,19.1,30.24,NE,39,0.0,0.0,76,0.00,,SCT,0.00,WeatherDisplay:10.37,2013-03-09 07:54:00,
2013-03-09 02:56:00,25.6,19.1,30.24,NE,39,0.0,0.0,76,0.00,,SCT,0.00,WeatherDisplay:10.37,2013-03-09 07:56:00,
2013-03-09 02:57:00,25.6,19.1,30.24,NE,39,0.0,0.0,76,0.00,,SCT,0.00,WeatherDisplay:10.37,2013-03-09 07:57:00,
2013-03-09 02:59:00,25.4,18.9,30.24,NE,39,0.0,0.0,76,0.00,,SCT,0.00,WeatherDisplay:10.37,2013-03-09 07:59:00,
2013-03-09 03:02:00,25.3,18.8,30.24,NE,39,0.0,0.0,76,0.00,,SCT,0.00,WeatherDisplay:10.37,2013-03-09 08:02:00,
2013-03-09 03:03:00,25.3,18.8,30.24,NE,39,0.0,0.0,76,0.00,,SCT,0.00,WeatherDisplay:10.37,2013-03-09 08:03:00,
2013-03-09 03:05:00,25.1,18.6,30.24,NE,39,0.0,0.0,76,0.00,,SCT,0.00,WeatherDisplay:10.37,2013-03-09 08:05:00,
2013-03-09 03:07:00,25.0,18.5,30.24,NE,39,0.0,0.0,76,0.00,,SCT,0.00,WeatherDisplay:10.37,2013-03-09 08:07:00,
2013-03-09 03:09:00,24.8,18.3,30.24,NE,39,0.0,0.0,76,0.00,,SCT,0.00,WeatherDisplay:10.37,2013-03-09 08:09:00,
2013-03-09 03:10:00,24.8,18.3,30.24,NE,39,0.0,0.0,76,0.00,,SCT,0.00,WeatherDisplay:10.37,2013-03-09 08:10:00,
2013-03-09 03:14:00,24.7,18.2,30.23,NE,39,0.0,0.0,76,0.00,,SCT,0.00,WeatherDisplay:10.37,2013-03-09 08:14:00,
2013-03-09 03:16:00,24.7,18.2,30.23,NE,39,0.0,0.0,76,0.00,,SCT,0.00,WeatherDisplay:10.37,2013-03-09 08:16:00,
2013-03-09 03:17:00,24.5,18.0,30.23,NE,39,0.0,0.0,76,0.00,,SCT,0.00,WeatherDisplay:10.37,2013-03-09 08:17:00,
2013-03-09 03:18:00,24.5,18.0,30.23,NE,39,0.0,0.0,76,0.00,,SCT,0.00,WeatherDisplay:10.37,2013-03-09 08:18:00,
2013-03-09 03:21:00,24.4,17.9,30.23,NE,39,0.0,0.0,76,0.00,,SCT,0.00,WeatherDisplay:10.37,2013-03-09 08:21:00,
2013-03-09 03:22:00,24.4,17.9,30.23,NE,39,0.0,0.0,76,0.00,,SCT,0.00,WeatherDisplay:10.37,2013-03-09 08:22:00,
2013-03-09 03:23:00,24.4,17.9,30.23,NE,39,0.0,0.0,76,0.00,,SCT,0.00,WeatherDisplay:10.37,2013-03-09 08:23:00,
2013-03-09 03:26:00,24.4,17.9,30.23,NE,39,0.0,0.0,76,0.00,,SCT,0.00,WeatherDisplay:10.37,2013-03-09 08:26:00,
2013-03-09 03:27:00,24.4,18.2,30.23,NE,39,0.0,0.0,77,0.00,,SCT,0.00,WeatherDisplay:10.37,2013-03-09 08:27:00,
2013-03-09 03:28:00,24.4,18.2,30.23,NE,39,0.0,0.0,77,0.00,,SCT,0.00,WeatherDisplay:10.37,2013-03-09 08:28:00,
2013-03-09 03:30:00,24.4,18.2,30.22,NE,39,0.0,0.0,77,0.00,,SCT,0.00,WeatherDisplay:10.37,2013-03-09 08:30:00,
2013-03-09 03:33:00,24.5,18.3,30.22,NE,39,0.0,0.0,77,0.00,,SCT,0.00,WeatherDisplay:10.37,2013-03-09 08:33:00,
2013-03-09 03:34:00,24.5,18.3,30.22,NE,39,0.0,0.0,77,0.00,,SCT,0.00,WeatherDisplay:10.37,2013-03-09 08:34:00,
2013-03-09 03:35:00,24.5,18.3,30.22,NE,39,0.0,0.0,77,0.00,,SCT,0.00,WeatherDisplay:10.37,2013-03-09 08:35:00,
2013-03-09 03:37:00,24.5,18.3,30.22,NE,39,0.0,0.0,77,0.00,,SCT,0.00,WeatherDisplay:10.37,2013-03-09 08:37:00,
2013-03-09 03:40:00,24.5,18.3,30.22,NE,39,0.0,0.0,77,0.00,,SCT,0.00,WeatherDisplay:10.37,2013-03-09 08:40:00,
2013-03-09 03:43:00,24.5,18.3,30.22,NE,39,0.0,0.0,77,0.00,,SCT,0.00,WeatherDisplay:10.37,2013-03-09 08:43:00,
2013-03-09 03:45:00,24.5,18.3,30.22,NE,39,0.0,0.0,77,0.00,,SCT,0.00,WeatherDisplay:10.37,2013-03-09 08:45:00,
2013-03-09 03:46:00,24.5,18.3,30.22,NE,39,0.0,0.0,77,0.00,,SCT,0.00,WeatherDisplay:10.37,2013-03-09 08:46:00,
2013-03-09 03:50:00,24.5,18.3,30.22,NE,39,0.0,0.0,77,0.00,,SCT,0.00,WeatherDisplay:10.37,2013-03-09 08:50:00,
2013-03-09 03:51:00,24.5,18.3,30.22,NE,39,0.0,0.0,77,0.00,,SCT,0.00,WeatherDisplay:10.37,2013-03-09 08:51:00,
2013-03-09 03:53:00,24.4,18.2,30.22,NE,39,0.0,0.0,77,0.00,,SCT,0.00,WeatherDisplay:10.37,2013-03-09 08:53:00,
2013-03-09 03:56:00,24.4,18.2,30.22,NE,39,0.0,0.0,77,0.00,,SCT,0.00,WeatherDisplay:10.37,2013-03-09 08:56:00,
2013-03-09 03:57:00,24.4,18.5,30.22,NE,39,0.0,0.0,78,0.00,,SCT,0.00,WeatherDisplay:10.37,2013-03-09 08:57:00,
2013-03-09 04:01:00,24.4,18.2,30.22,NE,39,0.0,0.0,77,0.00,,SCT,0.00,WeatherDisplay:10.37,2013-03-09 09:01:00,
2013-03-09 04:02:00,24.4,18.2,30.22,NE,39,0.0,0.0,77,0.00,,SCT,0.00,WeatherDisplay:10.37,2013-03-09 09:02:00,
2013-03-09 04:03:00,24.4,18.2,30.22,NE,39,0.0,0.0,77,0.00,,SCT,0.00,WeatherDisplay:10.37,2013-03-09 09:03:00,
2013-03-09 04:07:00,24.2,18.0,30.22,NE,39,0.0,0.0,77,0.00,,SCT,0.00,WeatherDisplay:10.37,2013-03-09 09:07:00,
2013-03-09 04:08:00,24.2,18.0,30.22,NE,39,0.0,0.0,77,0.00,,SCT,0.00,WeatherDisplay:10.37,2013-03-09 09:08:00,
2013-03-09 04:09:00,24.2,18.0,30.22,NE,39,0.0,0.0,77,0.00,,SCT,0.00,WeatherDisplay:10.37,2013-03-09 09:09:00,
2013-03-09 04:13:00,24.1,17.9,30.22,NE,39,0.0,0.0,77,0.00,,SCT,0.00,WeatherDisplay:10.37,2013-03-09 09:13:00,
2013-03-09 04:14:00,23.9,17.7,30.22,NE,39,0.0,0.0,77,0.00,,SCT,0.00,WeatherDisplay:10.37,2013-03-09 09:14:00,
2013-03-09 04:16:00,23.9,17.7,30.22,NE,39,0.0,0.0,77,0.00,,SCT,0.00,WeatherDisplay:10.37,2013-03-09 09:16:00,
2013-03-09 04:19:00,23.9,17.7,30.22,NE,39,0.0,0.0,77,0.00,,SCT,0.00,WeatherDisplay:10.37,2013-03-09 09:19:00,
2013-03-09 04:20:00,23.9,17.7,30.22,NE,39,0.0,0.0,77,0.00,,SCT,0.00,WeatherDisplay:10.37,2013-03-09 09:20:00,
2013-03-09 04:21:00,23.8,17.6,30.22,NE,39,0.0,0.0,77,0.00,,SCT,0.00,WeatherDisplay:10.37,2013-03-09 09:21:00,
2013-03-09 04:26:00,23.8,17.6,30.22,NE,39,0.0,0.0,77,0.00,,SCT,0.00,WeatherDisplay:10.37,2013-03-09 09:26:00,
2013-03-09 04:28:00,23.6,17.4,30.22,NE,39,0.0,0.0,77,0.00,,SCT,0.00,WeatherDisplay:10.37,2013-03-09 09:28:00,
2013-03-09 04:29:00,23.6,17.4,30.22,NE,39,0.0,0.0,77,0.00,,SCT,0.00,WeatherDisplay:10.37,2013-03-09 09:29:00,
2013-03-09 04:31:00,23.5,17.3,30.22,NE,39,0.0,0.0,77,0.00,,SCT,0.00,WeatherDisplay:10.37,2013-03-09 09:31:00,
2013-03-09 04:33:00,23.5,17.3,30.22,NE,39,0.0,0.0,77,0.00,,SCT,0.00,WeatherDisplay:10.37,2013-03-09 09:33:00,
2013-03-09 04:34:00,23.5,17.3,30.22,NE,39,0.0,0.0,77,0.00,,SCT,0.00,WeatherDisplay:10.37,2013-03-09 09:34:00,
2013-03-09 04:36:00,23.5,17.6,30.22,NE,39,0.0,0.0,78,0.00,,SCT,0.00,WeatherDisplay:10.37,2013-03-09 09:36:00,
2013-03-09 04:38:00,23.3,17.5,30.22,NE,39,0.0,0.0,78,0.00,,SCT,0.00,WeatherDisplay:10.37,2013-03-09 09:38:00,
2013-03-09 04:39:00,23.3,17.5,30.22,NE,39,0.0,0.0,78,0.00,,SCT,0.00,WeatherDisplay:10.37,2013-03-09 09:39:00,
2013-03-09 04:42:00,23.3,17.5,30.22,NE,39,0.0,0.0,78,0.00,,SCT,0.00,WeatherDisplay:10.37,2013-03-09 09:42:00,
2013-03-09 04:45:00,23.5,17.6,30.22,NE,39,0.0,0.0,78,0.00,,SCT,0.00,WeatherDisplay:10.37,2013-03-09 09:45:00,
2013-03-09 04:48:00,23.5,17.6,30.22,NE,39,0.0,0.0,78,0.00,,SCT,0.00,WeatherDisplay:10.37,2013-03-09 09:48:00,
2013-03-09 04:49:00,23.5,17.6,30.22,NE,39,0.0,0.0,78,0.00,,SCT,0.00,WeatherDisplay:10.37,2013-03-09 09:49:00,
2013-03-09 04:50:00,23.6,17.7,30.22,NE,39,0.0,0.0,78,0.00,,SCT,0.00,WeatherDisplay:10.37,2013-03-09 09:50:00,
2013-03-09 04:53:00,23.6,17.7,30.22,NE,39,0.0,0.0,78,0.00,,SCT,0.00,WeatherDisplay:10.37,2013-03-09 09:53:00,
2013-03-09 04:55:00,23.6,17.7,30.22,NE,39,0.0,0.0,78,0.00,,SCT,0.00,WeatherDisplay:10.37,2013-03-09 09:55:00,
2013-03-09 04:56:00,23.6,17.7,30.22,NE,39,0.0,0.0,78,0.00,,SCT,0.00,WeatherDisplay:10.37,2013-03-09 09:56:00,
2013-03-09 04:58:00,23.6,17.7,30.22,NE,39,0.0,0.0,78,0.00,,SCT,0.00,WeatherDisplay:10.37,2013-03-09 09:58:00,
2013-03-09 04:59:00,23.6,17.7,30.22,NE,39,0.0,0.0,78,0.00,,SCT,0.00,WeatherDisplay:10.37,2013-03-09 09:59:00,
2013-03-09 05:03:00,23.6,17.7,30.22,NE,39,0.0,0.0,78,0.00,,SCT,0.00,WeatherDisplay:10.37,2013-03-09 10:03:00,
2013-03-09 05:04:00,23.6,17.7,30.22,NE,39,0.0,0.0,78,0.00,,SCT,0.00,WeatherDisplay:10.37,2013-03-09 10:04:00,
2013-03-09 05:06:00,23.5,17.6,30.22,NE,39,0.0,0.0,78,0.00,,SCT,0.00,WeatherDisplay:10.37,2013-03-09 10:06:00,
2013-03-09 05:08:00,23.5,17.6,30.22,NE,39,0.0,0.0,78,0.00,,SCT,0.00,WeatherDisplay:10.37,2013-03-09 10:08:00,
2013-03-09 05:11:00,23.5,17.6,30.22,NE,39,0.0,0.0,78,0.00,,SCT,0.00,WeatherDisplay:10.37,2013-03-09 10:11:00,
2013-03-09 05:12:00,23.5,17.6,30.22,NE,39,0.0,0.0,78,0.00,,SCT,0.00,WeatherDisplay:10.37,2013-03-09 10:12:00,
2013-03-09 05:13:00,23.3,17.5,30.22,NE,39,0.0,0.0,78,0.00,,SCT,0.00,WeatherDisplay:10.37,2013-03-09 10:13:00,
2013-03-09 05:16:00,23.3,17.5,30.22,NE,39,0.0,0.0,78,0.00,,SCT,0.00,WeatherDisplay:10.37,2013-03-09 10:16:00,
2013-03-09 05:17:00,23.3,17.5,30.22,NE,39,0.0,0.0,78,0.00,,SCT,0.00,WeatherDisplay:10.37,2013-03-09 10:17:00,
2013-03-09 05:19:00,23.2,17.4,30.22,NE,39,0.0,0.0,78,0.00,,SCT,0.00,WeatherDisplay:10.37,2013-03-09 10:19:00,
2013-03-09 05:21:00,23.2,17.4,30.22,NE,39,0.0,0.0,78,0.00,,SCT,0.00,WeatherDisplay:10.37,2013-03-09 10:21:00,
2013-03-09 05:22:00,23.2,17.4,30.22,NE,39,0.0,0.0,78,0.00,,SCT,0.00,WeatherDisplay:10.37,2013-03-09 10:22:00,
2013-03-09 05:23:00,23.2,17.4,30.22,NE,39,0.0,0.0,78,0.00,,SCT,0.00,WeatherDisplay:10.37,2013-03-09 10:23:00,
2013-03-09 05:27:00,23.3,17.7,30.22,NE,39,0.0,0.0,79,0.00,,SCT,0.00,WeatherDisplay:10.37,2013-03-09 10:27:00,
2013-03-09 05:29:00,23.3,17.7,30.22,NE,39,0.0,0.0,79,0.00,,SCT,0.00,WeatherDisplay:10.37,2013-03-09 10:29:00,
2013-03-09 05:30:00,23.3,17.7,30.22,NE,39,0.0,0.0,79,0.00,,SCT,0.00,WeatherDisplay:10.37,2013-03-09 10:30:00,
2013-03-09 05:31:00,23.3,17.7,30.22,NE,39,0.0,0.0,79,0.00,,SCT,0.00,WeatherDisplay:10.37,2013-03-09 10:31:00,
2013-03-09 05:33:00,23.3,17.7,30.22,NE,39,0.0,0.0,79,0.00,,SCT,0.00,WeatherDisplay:10.37,2013-03-09 10:33:00,
2013-03-09 05:36:00,23.3,17.7,30.22,NE,39,0.0,0.0,79,0.00,,SCT,0.00,WeatherDisplay:10.37,2013-03-09 10:36:00,
2013-03-09 05:38:00,23.3,17.5,30.22,NE,39,0.0,0.0,78,0.00,,SCT,0.00,WeatherDisplay:10.37,2013-03-09 10:38:00,
2013-03-09 05:41:00,23.3,17.5,30.22,NE,39,0.0,0.0,78,0.00,,SCT,0.00,WeatherDisplay:10.37,2013-03-09 10:41:00,
2013-03-09 05:42:00,23.2,17.4,30.22,NE,39,0.0,0.0,78,0.00,,SCT,0.00,WeatherDisplay:10.37,2013-03-09 10:42:00,
2013-03-09 05:44:00,23.2,17.4,30.22,NE,39,0.0,0.0,78,0.00,,SCT,0.00,WeatherDisplay:10.37,2013-03-09 10:44:00,
2013-03-09 05:45:00,23.2,17.4,30.22,NE,39,0.0,0.0,78,0.00,,SCT,0.00,WeatherDisplay:10.37,2013-03-09 10:45:00,
2013-03-09 05:49:00,23.2,17.4,30.22,NE,39,0.0,0.0,78,0.00,,SCT,0.00,WeatherDisplay:10.37,2013-03-09 10:49:00,
2013-03-09 05:50:00,23.2,17.4,30.22,NE,39,0.0,0.0,78,0.00,,SCT,0.00,WeatherDisplay:10.37,2013-03-09 10:50:00,
2013-03-09 05:51:00,23.2,17.4,30.22,NE,39,0.0,0.0,78,0.00,,SCT,0.00,WeatherDisplay:10.37,2013-03-09 10:51:00,
2013-03-09 05:52:00,23.0,17.2,30.22,NE,39,0.0,0.0,78,0.00,,SCT,0.00,WeatherDisplay:10.37,2013-03-09 10:52:00,
2013-03-09 05:55:00,23.0,17.5,30.22,NE,39,0.0,0.0,79,0.00,,SCT,0.00,WeatherDisplay:10.37,2013-03-09 10:55:00,
2013-03-09 05:56:00,23.0,17.5,30.22,NE,39,0.0,0.0,79,0.00,,SCT,0.00,WeatherDisplay:10.37,2013-03-09 10:56:00,
2013-03-09 05:57:00,23.0,17.5,30.22,NE,39,0.0,0.0,79,0.00,,SCT,0.00,WeatherDisplay:10.37,2013-03-09 10:57:00,
2013-03-09 06:01:00,23.0,17.5,30.22,NE,39,0.0,0.0,79,0.00,,SCT,0.00,WeatherDisplay:10.37,2013-03-09 11:01:00,
2013-03-09 06:04:00,23.0,17.5,30.22,NE,39,0.0,0.0,79,0.00,,SCT,0.00,WeatherDisplay:10.37,2013-03-09 11:04:00,
2013-03-09 06:06:00,23.0,17.5,30.23,NE,39,0.0,0.0,79,0.00,,SCT,0.00,WeatherDisplay:10.37,2013-03-09 11:06:00,
2013-03-09 06:07:00,23.0,17.5,30.23,NE,39,0.0,0.0,79,0.00,,SCT,0.00,WeatherDisplay:10.37,2013-03-09 11:07:00,
2013-03-09 06:11:00,23.0,17.5,30.23,NE,39,0.0,0.0,79,0.00,,SCT,0.00,WeatherDisplay:10.37,2013-03-09 11:11:00,
2013-03-09 06:13:00,23.0,17.5,30.23,NE,39,0.0,0.0,79,0.00,,SCT,0.00,WeatherDisplay:10.37,2013-03-09 11:13:00,
2013-03-09 06:16:00,23.0,17.5,30.23,NE,39,0.0,0.0,79,0.00,,SCT,0.00,WeatherDisplay:10.37,2013-03-09 11:16:00,
2013-03-09 06:18:00,23.0,17.5,30.23,NE,39,0.0,0.0,79,0.00,,SCT,0.00,WeatherDisplay:10.37,2013-03-09 11:18:00,
2013-03-09 06:19:00,23.0,17.5,30.23,NE,39,0.0,0.0,79,0.00,,SCT,0.00,WeatherDisplay:10.37,2013-03-09 11:19:00,
2013-03-09 06:22:00,22.9,17.4,30.23,NE,39,0.0,0.0,79,0.00,CLR,SCT,0.00,WeatherDisplay:10.37,2013-03-09 11:22:00,
2013-03-09 06:24:00,22.9,17.4,30.23,NE,39,0.0,0.0,79,0.00,CLR,SCT,0.00,WeatherDisplay:10.37,2013-03-09 11:24:00,
2013-03-09 06:25:00,22.9,17.4,30.23,NE,39,0.0,0.0,79,0.00,CLR,SCT,0.00,WeatherDisplay:10.37,2013-03-09 11:25:00,
2013-03-09 06:30:00,22.9,17.4,30.23,NE,39,0.0,0.0,79,0.00,CLR,SCT,0.00,WeatherDisplay:10.37,2013-03-09 11:30:00,
2013-03-09 06:32:00,22.9,17.4,30.23,NE,39,0.0,0.0,79,0.00,CLR,SCT,0.00,WeatherDisplay:10.37,2013-03-09 11:32:00,
2013-03-09 06:33:00,22.9,17.4,30.24,NE,39,0.0,0.0,79,0.00,CLR,SCT,0.00,WeatherDisplay:10.37,2013-03-09 11:33:00,
2013-03-09 06:37:00,22.7,17.2,30.24,NE,39,0.0,0.0,79,0.00,CLR,SCT,0.00,WeatherDisplay:10.37,2013-03-09 11:37:00,
2013-03-09 06:39:00,22.7,17.2,30.24,NE,39,0.0,0.0,79,0.00,CLR,SCT,0.00,WeatherDisplay:10.37,2013-03-09 11:39:00,
2013-03-09 06:42:00,22.5,17.0,30.25,NE,39,0.0,0.0,79,0.00,CLR,SCT,0.00,WeatherDisplay:10.37,2013-03-09 11:42:00,
2013-03-09 06:43:00,22.5,17.0,30.25,NE,39,0.0,0.0,79,0.00,CLR,SCT,0.00,WeatherDisplay:10.37,2013-03-09 11:43:00,
2013-03-09 06:47:00,22.5,17.0,30.25,NE,39,0.0,0.0,79,0.00,CLR,SCT,0.00,WeatherDisplay:10.37,2013-03-09 11:47:00,
2013-03-09 06:50:00,22.5,16.7,30.25,NE,39,0.0,0.0,78,0.00,CLR,SCT,0.00,WeatherDisplay:10.37,2013-03-09 11:50:00,
2013-03-09 06:55:00,22.4,16.6,30.25,NE,39,0.0,0.0,78,0.00,CLR,SCT,0.00,WeatherDisplay:10.37,2013-03-09 11:55:00,
2013-03-09 06:57:00,22.4,16.6,30.26,NE,39,0.0,0.0,78,0.00,CLR,SCT,0.00,WeatherDisplay:10.37,2013-03-09 11:57:00,
2013-03-09 06:59:00,22.4,16.6,30.26,NE,39,0.0,0.0,78,0.00,CLR,SCT,0.00,WeatherDisplay:10.37,2013-03-09 11:59:00,
2013-03-09 07:01:00,22.4,16.6,30.26,NE,39,0.0,0.0,78,0.00,CLR,SCT,0.00,WeatherDisplay:10.37,2013-03-09 12:01:00,
2013-03-09 07:03:00,22.4,16.9,30.26,NE,39,0.0,0.0,79,0.00,CLR,SCT,0.00,WeatherDisplay:10.37,2013-03-09 12:03:00,
2013-03-09 07:04:00,22.4,16.9,30.26,NE,39,0.0,0.0,79,0.00,CLR,SCT,0.00,WeatherDisplay:10.37,2013-03-09 12:04:00,
2013-03-09 07:08:00,22.4,16.9,30.27,NE,39,0.0,0.0,79,0.00,CLR,SCT,0.00,WeatherDisplay:10.37,2013-03-09 12:08:00,
2013-03-09 07:09:00,22.4,16.9,30.27,NE,39,0.0,0.0,79,0.00,CLR,SCT,0.00,WeatherDisplay:10.37,2013-03-09 12:09:00,
2013-03-09 07:12:00,22.5,17.0,30.27,NE,39,0.0,0.0,79,0.00,CLR,SCT,0.00,WeatherDisplay:10.37,2013-03-09 12:12:00,
2013-03-09 07:13:00,22.5,17.0,30.27,NE,39,0.0,0.0,79,0.00,CLR,SCT,0.00,WeatherDisplay:10.37,2013-03-09 12:13:00,
2013-03-09 07:14:00,22.5,17.0,30.27,NE,39,0.0,0.0,79,0.00,CLR,SCT,0.00,WeatherDisplay:10.37,2013-03-09 12:14:00,
2013-03-09 07:17:00,22.7,17.2,30.27,NE,39,0.0,0.0,79,0.00,CLR,SCT,0.00,WeatherDisplay:10.37,2013-03-09 12:17:00,
2013-03-09 07:19:00,22.9,17.4,30.27,NE,39,0.0,0.0,79,0.00,CLR,SCT,0.00,WeatherDisplay:10.37,2013-03-09 12:19:00,
2013-03-09 07:20:00,22.9,17.4,30.27,NE,39,0.0,0.0,79,0.00,CLR,SCT,0.00,WeatherDisplay:10.37,2013-03-09 12:20:00,
2013-03-09 07:24:00,23.0,17.5,30.27,NE,39,0.0,0.0,79,0.00,CLR,SCT,0.00,WeatherDisplay:10.37,2013-03-09 12:24:00,
2013-03-09 07:26:00,23.2,17.9,30.27,NE,39,0.0,0.0,80,0.00,CLR,SCT,0.00,WeatherDisplay:10.37,2013-03-09 12:26:00,
2013-03-09 07:27:00,23.2,17.9,30.27,NE,39,0.0,0.0,80,0.00,CLR,SCT,0.00,WeatherDisplay:10.37,2013-03-09 12:27:00,
2013-03-09 07:29:00,23.3,18.0,30.27,NE,39,0.0,0.0,80,0.00,CLR,SCT,0.00,WeatherDisplay:10.37,2013-03-09 12:29:00,
2013-03-09 07:32:00,23.6,18.3,30.27,NE,39,0.0,0.0,80,0.00,CLR,SCT,0.00,WeatherDisplay:10.37,2013-03-09 12:32:00,
2013-03-09 07:34:00,23.8,18.5,30.27,NE,39,0.0,0.0,80,0.00,CLR,SCT,0.00,WeatherDisplay:10.37,2013-03-09 12:34:00,
2013-03-09 07:37:00,23.9,18.6,30.27,NE,39,0.0,0.0,80,0.00,CLR,SCT,0.00,WeatherDisplay:10.37,2013-03-09 12:37:00,
2013-03-09 07:38:00,24.1,18.8,30.27,NE,39,0.0,0.0,80,0.00,CLR,SCT,0.00,WeatherDisplay:10.37,2013-03-09 12:38:00,
2013-03-09 07:40:00,24.2,18.9,30.27,NE,39,0.0,0.0,80,0.00,CLR,SCT,0.00,WeatherDisplay:10.37,2013-03-09 12:40:00,
2013-03-09 07:43:00,24.5,19.2,30.27,NE,39,0.0,0.0,80,0.00,CLR,SCT,0.00,WeatherDisplay:10.37,2013-03-09 12:43:00,
2013-03-09 07:45:00,24.7,19.4,30.27,NE,39,0.0,0.0,80,0.00,CLR,SCT,0.00,WeatherDisplay:10.37,2013-03-09 12:45:00,
2013-03-09 07:46:00,24.8,19.5,30.27,NE,39,0.0,0.0,80,0.00,CLR,SCT,0.00,WeatherDisplay:10.37,2013-03-09 12:46:00,
2013-03-09 07:48:00,25.0,20.0,30.27,NE,39,0.0,0.0,81,0.00,CLR,SCT,0.00,WeatherDisplay:10.37,2013-03-09 12:48:00,
2013-03-09 07:49:00,25.1,20.1,30.27,NE,39,0.0,0.0,81,0.00,CLR,SCT,0.00,WeatherDisplay:10.37,2013-03-09 12:49:00,
2013-03-09 07:52:00,25.4,20.4,30.27,NE,39,0.0,0.0,81,0.00,CLR,SCT,0.00,WeatherDisplay:10.37,2013-03-09 12:52:00,
2013-03-09 07:54:00,25.6,20.6,30.27,NE,39,0.0,0.0,81,0.00,CLR,SCT,0.00,WeatherDisplay:10.37,2013-03-09 12:54:00,
2013-03-09 07:55:00,25.7,20.7,30.27,NE,39,0.0,0.0,81,0.00,CLR,SCT,0.00,WeatherDisplay:10.37,2013-03-09 12:55:00,
2013-03-09 07:57:00,26.0,21.0,30.27,NE,39,0.0,0.0,81,0.00,CLR,SCT,0.00,WeatherDisplay:10.37,2013-03-09 12:57:00,
2013-03-09 08:00:00,26.3,21.3,30.27,NE,39,0.0,0.0,81,0.00,CLR,SCT,0.00,WeatherDisplay:10.37,2013-03-09 13:00:00,
2013-03-09 08:01:00,26.3,21.3,30.27,NE,39,0.0,0.0,81,0.00,CLR,SCT,0.00,WeatherDisplay:10.37,2013-03-09 13:01:00,
2013-03-09 08:04:00,26.7,21.7,30.26,NE,39,0.0,0.0,81,0.00,CLR,SCT,0.00,WeatherDisplay:10.37,2013-03-09 13:04:00,
2013-03-09 08:06:00,27.0,21.9,30.27,NE,39,0.0,0.0,81,0.00,CLR,SCT,0.00,WeatherDisplay:10.37,2013-03-09 13:06:00,
2013-03-09 08:08:00,27.2,22.1,30.27,NE,39,0.0,0.0,81,0.00,CLR,SCT,0.00,WeatherDisplay:10.37,2013-03-09 13:08:00,
2013-03-09 08:09:00,27.3,22.2,30.27,NE,39,0.0,0.0,81,0.00,CLR,SCT,0.00,WeatherDisplay:10.37,2013-03-09 13:09:00,
2013-03-09 08:14:00,28.1,23.0,30.28,NE,39,0.0,0.0,81,0.00,CLR,SCT,0.00,WeatherDisplay:10.37,2013-03-09 13:14:00,
2013-03-09 08:15:00,28.2,23.1,30.28,NE,39,0.0,0.0,81,0.00,CLR,SCT,0.00,WeatherDisplay:10.37,2013-03-09 13:15:00,
2013-03-09 08:16:00,28.4,23.3,30.28,NE,39,0.0,0.0,81,0.00,CLR,SCT,0.00,WeatherDisplay:10.37,2013-03-09 13:16:00,
2013-03-09 08:18:00,28.7,23.6,30.28,NE,39,0.0,0.0,81,0.00,CLR,SCT,0.00,WeatherDisplay:10.37,2013-03-09 13:18:00,
2013-03-09 08:21:00,29.1,24.0,30.28,NE,39,0.0,0.0,81,0.00,CLR,SCT,0.00,WeatherDisplay:10.37,2013-03-09 13:21:00,
2013-03-09 08:24:00,29.8,24.7,30.28,NE,39,0.0,0.0,81,0.00,CLR,SCT,0.00,WeatherDisplay:10.37,2013-03-09 13:24:00,
2013-03-09 08:25:00,30.1,25.0,30.28,NE,39,0.0,0.0,81,0.00,CLR,SCT,0.00,WeatherDisplay:10.37,2013-03-09 13:25:00,
2013-03-09 08:27:00,30.6,25.5,30.28,NE,39,0.0,0.0,81,0.00,CLR,SCT,0.00,WeatherDisplay:10.37,2013-03-09 13:27:00,
2013-03-09 08:30:00,31.2,26.0,30.28,NE,39,0.0,0.0,81,0.00,CLR,SCT,0.00,WeatherDisplay:10.37,2013-03-09 13:30:00,
2013-03-09 08:31:00,31.3,26.1,30.28,NE,39,0.0,0.0,81,0.00,CLR,SCT,0.00,WeatherDisplay:10.37,2013-03-09 13:31:00,
2013-03-09 08:36:00,32.2,27.0,30.28,NE,39,0.0,0.0,81,0.00,CLR,SCT,0.00,WeatherDisplay:10.37,2013-03-09 13:36:00,
2013-03-09 08:37:00,32.4,27.2,30.28,NE,39,0.0,0.0,81,0.00,CLR,SCT,0.00,WeatherDisplay:10.37,2013-03-09 13:37:00,
2013-03-09 08:38:00,32.5,27.3,30.28,NE,39,0.0,0.0,81,0.00,CLR,SCT,0.00,WeatherDisplay:10.37,2013-03-09 13:38:00,
2013-03-09 08:39:00,32.7,27.5,30.28,NE,39,0.0,0.0,81,0.00,CLR,SCT,0.00,WeatherDisplay:10.37,2013-03-09 13:39:00,
2013-03-09 08:41:00,32.9,27.7,30.28,NE,39,0.0,0.0,81,0.00,CLR,SCT,0.00,WeatherDisplay:10.37,2013-03-09 13:41:00,
2013-03-09 08:44:00,33.5,28.3,30.27,NE,39,0.0,0.0,81,0.00,CLR,SCT,0.00,WeatherDisplay:10.37,2013-03-09 13:44:00,
2013-03-09 08:46:00,33.8,28.6,30.27,NE,39,0.0,0.0,81,0.00,CLR,SCT,0.00,WeatherDisplay:10.37,2013-03-09 13:46:00,
2013-03-09 08:51:00,34.3,29.1,30.27,NE,39,0.0,0.0,81,0.00,CLR,SCT,0.00,WeatherDisplay:10.37,2013-03-09 13:51:00,
2013-03-09 08:57:00,34.6,29.1,30.27,NE,39,0.0,0.0,80,0.00,CLR,SCT,0.00,WeatherDisplay:10.37,2013-03-09 13:57:00,
2013-03-09 09:01:00,34.9,29.4,30.27,NE,40,4.0,4.0,80,0.00,CLR,SCT,0.00,WeatherDisplay:10.37,2013-03-09 14:01:00,
2013-03-09 09:02:00,34.9,29.4,30.26,NE,41,4.6,4.6,80,0.00,CLR,SCT,0.00,WeatherDisplay:10.37,2013-03-09 14:02:00,
2013-03-09 09:05:00,35.0,29.5,30.26,NE,41,3.5,3.5,80,0.00,CLR,SCT,0.00,WeatherDisplay:10.37,2013-03-09 14:05:00,
2013-03-09 09:07:00,35.2,29.6,30.26,NE,41,2.3,2.3,80,0.00,CLR,SCT,0.00,WeatherDisplay:10.37,2013-03-09 14:07:00,
2013-03-09 09:08:00,35.2,29.6,30.26,NE,41,1.1,1.1,80,0.00,CLR,SCT,0.00,WeatherDisplay:10.37,2013-03-09 14:08:00,
2013-03-09 09:13:00,35.5,29.9,30.26,NE,41,0.0,0.0,80,0.00,CLR,SCT,0.00,WeatherDisplay:10.37,2013-03-09 14:13:00,
2013-03-09 09:16:00,35.5,29.6,30.26,NE,41,0.0,0.0,79,0.00,CLR,SCT,0.00,WeatherDisplay:10.37,2013-03-09 14:16:00,
2013-03-09 09:18:00,35.6,30.0,30.26,NE,41,0.0,0.0,80,0.00,CLR,SCT,0.00,WeatherDisplay:10.37,2013-03-09 14:18:00,
2013-03-09 09:19:00,35.8,30.2,30.26,NE,41,0.0,0.0,80,0.00,CLR,SCT,0.00,WeatherDisplay:10.37,2013-03-09 14:19:00,
2013-03-09 09:23:00,36.0,30.1,30.26,NE,40,0.0,0.0,79,0.00,CLR,SCT,0.00,WeatherDisplay:10.37,2013-03-09 14:23:00,
2013-03-09 09:24:00,36.0,30.1,30.26,NE,40,0.0,0.0,79,0.00,CLR,SCT,0.00,WeatherDisplay:10.37,2013-03-09 14:24:00,
2013-03-09 09:26:00,36.3,30.4,30.26,NE,41,0.0,0.0,79,0.00,CLR,SCT,0.00,WeatherDisplay:10.37,2013-03-09 14:26:00,
2013-03-09 09:28:00,36.5,30.6,30.26,NE,40,0.0,0.0,79,0.00,CLR,SCT,0.00,WeatherDisplay:10.37,2013-03-09 14:28:00,
2013-03-09 09:33:00,36.9,31.0,30.25,NE,40,0.0,0.0,79,0.00,CLR,SCT,0.00,WeatherDisplay:10.37,2013-03-09 14:33:00,
2013-03-09 09:34:00,37.0,31.1,30.25,NE,40,0.0,0.0,79,0.00,CLR,SCT,0.00,WeatherDisplay:10.37,2013-03-09 14:34:00,
2013-03-09 09:39:00,37.5,31.6,30.25,NE,40,0.0,0.1,79,0.00,CLR,SCT,0.00,WeatherDisplay:10.37,2013-03-09 14:39:00,
2013-03-09 09:40:00,37.5,31.3,30.25,NE,40,1.1,0.0,78,0.00,CLR,SCT,0.00,WeatherDisplay:10.37,2013-03-09 14:40:00,
2013-03-09 09:42:00,37.6,31.4,30.25,NE,40,0.0,0.0,78,0.00,CLR,SCT,0.00,WeatherDisplay:10.37,2013-03-09 14:42:00,
2013-03-09 09:44:00,37.9,32.0,30.25,NE,40,0.0,0.0,79,0.00,CLR,SCT,0.00,WeatherDisplay:10.37,2013-03-09 14:44:00,
2013-03-09 09:46:00,38.0,32.1,30.25,NE,40,0.0,0.0,79,0.00,CLR,SCT,0.00,WeatherDisplay:10.37,2013-03-09 14:46:00,
2013-03-09 09:48:00,38.2,31.9,30.26,NE,40,0.0,0.0,78,0.00,CLR,SCT,0.00,WeatherDisplay:10.37,2013-03-09 14:48:00,
2013-03-09 09:51:00,38.5,32.2,30.26,NE,40,0.0,0.0,78,0.00,CLR,SCT,0.00,WeatherDisplay:10.37,2013-03-09 14:51:00,
2013-03-09 09:52:00,38.5,32.2,30.25,NE,40,0.0,0.0,78,0.00,CLR,SCT,0.00,WeatherDisplay:10.37,2013-03-09 14:52:00,
2013-03-09 09:53:00,38.6,32.3,30.25,NE,40,0.0,0.0,78,0.00,CLR,SCT,0.00,WeatherDisplay:10.37,2013-03-09 14:53:00,
2013-03-09 09:54:00,38.6,32.3,30.25,NE,40,0.0,0.0,78,0.00,CLR,SCT,0.00,WeatherDisplay:10.37,2013-03-09 14:54:00,
2013-03-09 09:57:00,38.8,32.2,30.25,NE,40,0.0,0.0,77,0.00,CLR,SCT,0.00,WeatherDisplay:10.37,2013-03-09 14:57:00,
2013-03-09 09:58:00,38.8,32.2,30.25,NE,40,0.0,0.0,77,0.00,CLR,SCT,0.00,WeatherDisplay:10.37,2013-03-09 14:58:00,
2013-03-09 09:59:00,38.8,32.2,30.25,NE,40,0.0,0.0,77,0.00,CLR,SCT,0.00,WeatherDisplay:10.37,2013-03-09 14:59:00,
2013-03-09 10:00:00,38.8,32.2,30.25,NE,40,0.0,0.0,77,0.00,CLR,SCT,0.00,WeatherDisplay:10.37,2013-03-09 15:00:00,
2013-03-09 10:04:00,38.9,32.3,30.25,NE,40,0.0,0.0,77,0.00,CLR,SCT,0.00,WeatherDisplay:10.37,2013-03-09 15:04:00,
2013-03-09 10:05:00,38.9,32.3,30.25,NE,40,0.0,0.0,77,0.00,CLR,SCT,0.00,WeatherDisplay:10.37,2013-03-09 15:05:00,
2013-03-09 10:07:00,39.1,32.5,30.25,NE,40,0.0,0.0,77,0.00,CLR,SCT,0.00,WeatherDisplay:10.37,2013-03-09 15:07:00,
2013-03-09 10:09:00,39.2,32.6,30.25,NE,40,0.0,0.0,77,0.00,CLR,SCT,0.00,WeatherDisplay:10.37,2013-03-09 15:09:00,
2013-03-09 10:10:00,39.3,32.7,30.25,NE,40,0.0,0.0,77,0.00,CLR,SCT,0.00,WeatherDisplay:10.37,2013-03-09 15:10:00,
2013-03-09 10:12:00,39.5,32.9,30.24,NE,40,0.0,0.0,77,0.00,CLR,SCT,0.00,WeatherDisplay:10.37,2013-03-09 15:12:00,
2013-03-09 10:13:00,39.5,32.9,30.24,NE,40,0.0,0.0,77,0.00,CLR,SCT,0.00,WeatherDisplay:10.37,2013-03-09 15:13:00,
2013-03-09 10:16:00,39.9,33.3,30.24,NE,40,0.0,0.0,77,0.00,CLR,SCT,0.00,WeatherDisplay:10.37,2013-03-09 15:16:00,
2013-03-09 10:18:00,40.1,33.5,30.24,NE,40,0.0,0.0,77,0.00,CLR,SCT,0.00,WeatherDisplay:10.37,2013-03-09 15:18:00,
2013-03-09 10:19:00,40.2,33.2,30.24,NE,40,0.0,0.0,76,0.00,CLR,SCT,0.00,WeatherDisplay:10.37,2013-03-09 15:19:00,
2013-03-09 10:21:00,40.3,33.3,30.24,NE,40,0.0,0.0,76,0.00,CLR,SCT,0.00,WeatherDisplay:10.37,2013-03-09 15:21:00,
2013-03-09 10:24:00,40.8,33.8,30.24,NE,40,0.0,0.0,76,0.00,CLR,SCT,0.00,WeatherDisplay:10.37,2013-03-09 15:24:00,
2013-03-09 10:25:00,40.9,33.9,30.24,NE,40,0.0,0.0,76,0.00,CLR,SCT,0.00,WeatherDisplay:10.37,2013-03-09 15:25:00,
2013-03-09 10:28:00,41.2,34.2,30.24,NE,40,0.0,0.0,76,0.00,CLR,SCT,0.00,WeatherDisplay:10.37,2013-03-09 15:28:00,
2013-03-09 10:29:00,41.5,34.5,30.24,NE,42,0.0,0.0,76,0.00,CLR,SCT,0.00,WeatherDisplay:10.37,2013-03-09 15:29:00,
2013-03-09 10:32:00,41.8,34.8,30.24,NE,42,0.0,0.0,76,0.00,CLR,SCT,0.00,WeatherDisplay:10.37,2013-03-09 15:32:00,
2013-03-09 10:36:00,42.3,34.9,30.24,NE,42,0.0,0.0,75,0.00,CLR,SCT,0.00,WeatherDisplay:10.37,2013-03-09 15:36:00,
2013-03-09 10:37:00,42.5,35.1,30.24,NE,42,0.0,0.0,75,0.00,CLR,SCT,0.00,WeatherDisplay:10.37,2013-03-09 15:37:00,
2013-03-09 10:41:00,42.8,35.4,30.24,NE,42,0.0,0.0,75,0.00,CLR,SCT,0.00,WeatherDisplay:10.37,2013-03-09 15:41:00,
2013-03-09 10:42:00,42.9,35.5,30.24,NE,42,0.0,0.0,75,0.00,CLR,SCT,0.00,WeatherDisplay:10.37,2013-03-09 15:42:00,
2013-03-09 10:43:00,43.1,35.7,30.24,NE,42,0.0,0.0,75,0.00,CLR,SCT,0.00,WeatherDisplay:10.37,2013-03-09 15:43:00,
2013-03-09 10:44:00,43.2,35.8,30.24,NE,42,0.0,0.0,75,0.00,CLR,SCT,0.00,WeatherDisplay:10.37,2013-03-09 15:44:00,
2013-03-09 10:47:00,43.3,35.9,30.24,NE,42,0.0,0.0,75,0.00,CLR,SCT,0.00,WeatherDisplay:10.37,2013-03-09 15:47:00,
2013-03-09 10:48:00,43.5,36.1,30.24,NE,43,0.0,0.0,75,0.00,CLR,SCT,0.00,WeatherDisplay:10.37,2013-03-09 15:48:00,
2013-03-09 10:50:00,43.8,36.0,30.24,NE,43,0.0,0.0,74,0.00,CLR,SCT,0.00,WeatherDisplay:10.37,2013-03-09 15:50:00,
2013-03-09 10:53:00,43.9,36.1,30.24,NE,43,0.0,0.0,74,0.00,CLR,SCT,0.00,WeatherDisplay:10.37,2013-03-09 15:53:00,
2013-03-09 10:55:00,44.2,36.4,30.23,NE,44,0.0,0.0,74,0.00,CLR,SCT,0.00,WeatherDisplay:10.37,2013-03-09 15:55:00,
2013-03-09 10:57:00,44.3,36.2,30.23,NE,44,0.0,0.0,73,0.00,CLR,SCT,0.00,WeatherDisplay:10.37,2013-03-09 15:57:00,
2013-03-09 10:59:00,44.6,36.5,30.23,NE,44,0.0,0.0,73,0.00,CLR,SCT,0.00,WeatherDisplay:10.37,2013-03-09 15:59:00,
2013-03-09 11:00:00,44.6,36.5,30.23,NE,44,0.0,0.0,73,0.00,CLR,SCT,0.00,WeatherDisplay:10.37,2013-03-09 16:00:00,
2013-03-09 11:04:00,45.1,37.0,30.23,NE,44,0.0,0.0,73,0.00,CLR,SCT,0.00,WeatherDisplay:10.37,2013-03-09 16:04:00,
2013-03-09 11:06:00,45.2,37.1,30.23,NE,44,0.0,0.0,73,0.00,CLR,SCT,0.00,WeatherDisplay:10.37,2013-03-09 16:06:00,
2013-03-09 11:08:00,45.4,36.9,30.23,NE,44,0.0,0.0,72,0.00,CLR,SCT,0.00,WeatherDisplay:10.37,2013-03-09 16:08:00,
2013-03-09 11:12:00,45.8,37.3,30.23,NE,44,0.0,0.0,72,0.00,CLR,SCT,0.00,WeatherDisplay:10.37,2013-03-09 16:12:00,
2013-03-09 11:16:00,46.1,37.2,30.23,NE,44,0.0,0.0,71,0.00,CLR,SCT,0.00,WeatherDisplay:10.37,2013-03-09 16:16:00,
2013-03-09 11:17:00,46.2,37.7,30.23,NE,44,0.0,0.0,72,0.00,CLR,SCT,0.00,WeatherDisplay:10.37,2013-03-09 16:17:00,
2013-03-09 11:19:00,46.4,37.9,30.23,NE,44,0.0,0.0,72,0.00,CLR,SCT,0.00,WeatherDisplay:10.37,2013-03-09 16:19:00,
2013-03-09 11:20:00,46.4,37.5,30.23,NE,44,0.0,0.0,71,0.00,CLR,SCT,0.00,WeatherDisplay:10.37,2013-03-09 16:20:00,
2013-03-09 11:21:00,46.5,37.6,30.22,NE,44,0.0,0.0,71,0.00,CLR,SCT,0.00,WeatherDisplay:10.37,2013-03-09 16:21:00,
2013-03-09 11:23:00,46.7,37.8,30.22,NE,44,0.0,0.0,71,0.00,CLR,SCT,0.00,WeatherDisplay:10.37,2013-03-09 16:23:00,
2013-03-09 11:25:00,46.8,37.9,30.22,NE,44,0.0,0.0,71,0.00,CLR,SCT,0.00,WeatherDisplay:10.37,2013-03-09 16:25:00,
2013-03-09 11:26:00,46.8,37.5,30.22,NE,44,1.1,0.0,70,0.00,CLR,SCT,0.00,WeatherDisplay:10.37,2013-03-09 16:26:00,
2013-03-09 11:28:00,47.0,37.7,30.22,NE,44,0.0,0.0,70,0.00,CLR,SCT,0.00,WeatherDisplay:10.37,2013-03-09 16:28:00,
2013-03-09 11:30:00,47.3,38.0,30.22,NE,44,0.0,0.0,70,0.00,CLR,SCT,0.00,WeatherDisplay:10.37,2013-03-09 16:30:00,
2013-03-09 11:31:00,47.3,38.0,30.22,NE,44,0.0,0.0,70,0.00,CLR,SCT,0.00,WeatherDisplay:10.37,2013-03-09 16:31:00,
2013-03-09 11:33:00,47.6,38.7,30.22,NE,44,1.1,0.0,71,0.00,CLR,SCT,0.00,WeatherDisplay:10.37,2013-03-09 16:33:00,
2013-03-09 11:38:00,48.2,38.5,30.22,NE,44,1.1,1.1,69,0.00,CLR,SCT,0.00,WeatherDisplay:10.37,2013-03-09 16:38:00,
2013-03-09 11:39:00,48.3,38.6,30.22,NE,44,1.1,0.0,69,0.00,CLR,SCT,0.00,WeatherDisplay:10.37,2013-03-09 16:39:00,
2013-03-09 11:40:00,48.3,38.2,30.22,NE,44,0.0,0.0,68,0.00,CLR,SCT,0.00,WeatherDisplay:10.37,2013-03-09 16:40:00,
2013-03-09 11:42:00,48.6,38.5,30.22,NE,44,1.1,1.1,68,0.00,CLR,SCT,0.00,WeatherDisplay:10.37,2013-03-09 16:42:00,
2013-03-09 11:46:00,48.9,38.8,30.22,NE,44,2.3,2.3,68,0.00,CLR,SCT,0.00,WeatherDisplay:10.37,2013-03-09 16:46:00,
2013-03-09 11:48:00,49.1,38.6,30.22,NE,44,3.5,3.5,67,0.00,CLR,SCT,0.00,WeatherDisplay:10.37,2013-03-09 16:48:00,
2013-03-09 11:49:00,49.1,38.6,30.22,NE,45,2.3,2.3,67,0.00,CLR,SCT,0.00,WeatherDisplay:10.37,2013-03-09 16:49:00,
2013-03-09 11:52:00,49.4,38.9,30.22,NE,44,1.1,0.0,67,0.00,CLR,SCT,0.00,WeatherDisplay:10.37,2013-03-09 16:52:00,
2013-03-09 11:57:00,49.8,39.3,30.21,NE,44,2.0,2.0,67,0.00,CLR,SCT,0.00,WeatherDisplay:10.37,2013-03-09 16:57:00,
2013-03-09 11:58:00,49.8,39.3,30.21,NE,44,2.3,2.3,67,0.00,CLR,SCT,0.00,WeatherDisplay:10.37,2013-03-09 16:58:00,
2013-03-09 12:02:00,50.2,39.3,30.21,NE,44,3.5,3.5,66,0.00,CLR,SCT,0.00,WeatherDisplay:10.37,2013-03-09 17:02:00,
2013-03-09 12:03:00,50.4,39.1,30.21,NE,44,3.5,3.5,65,0.00,CLR,SCT,0.00,WeatherDisplay:10.37,2013-03-09 17:03:00,
2013-03-09 12:04:00,50.4,39.1,30.21,NE,44,2.3,2.3,65,0.00,CLR,SCT,0.00,WeatherDisplay:10.37,2013-03-09 17:04:00,
2013-03-09 12:07:00,50.8,39.5,30.21,NE,45,4.6,4.6,65,0.00,CLR,SCT,0.00,WeatherDisplay:10.37,2013-03-09 17:07:00,
2013-03-09 12:09:00,51.1,40.1,30.21,NE,45,1.1,0.0,66,0.00,CLR,SCT,0.00,WeatherDisplay:10.37,2013-03-09 17:09:00,
2013-03-09 12:10:00,51.3,40.3,30.21,NE,45,0.0,0.0,66,0.00,CLR,SCT,0.00,WeatherDisplay:10.37,2013-03-09 17:10:00,
2013-03-09 12:12:00,51.6,41.0,30.21,NE,45,0.0,0.0,67,0.00,CLR,SCT,0.00,WeatherDisplay:10.37,2013-03-09 17:12:00,
2013-03-09 12:14:00,51.9,40.9,30.21,NE,45,2.3,2.3,66,0.00,CLR,SCT,0.00,WeatherDisplay:10.37,2013-03-09 17:14:00,
2013-03-09 12:15:00,52.0,41.0,30.21,NE,45,2.0,2.0,66,0.00,CLR,SCT,0.00,WeatherDisplay:10.37,2013-03-09 17:15:00,
2013-03-09 12:17:00,52.2,40.8,30.21,NE,44,2.3,0.0,65,0.00,CLR,SCT,0.00,WeatherDisplay:10.37,2013-03-09 17:17:00,
2013-03-09 12:20:00,52.5,40.7,30.21,NE,45,3.5,3.5,64,0.00,CLR,SCT,0.00,WeatherDisplay:10.37,2013-03-09 17:20:00,
2013-03-09 12:22:00,52.6,40.4,30.20,NE,45,2.3,2.3,63,0.00,CLR,SCT,0.00,WeatherDisplay:10.37,2013-03-09 17:22:00,
2013-03-09 12:25:00,52.8,40.5,30.20,NE,45,1.0,0.0,63,0.00,CLR,SCT,0.00,WeatherDisplay:10.37,2013-03-09 17:25:00,
2013-03-09 12:26:00,52.9,40.6,30.21,NE,45,1.1,1.1,63,0.00,CLR,SCT,0.00,WeatherDisplay:10.37,2013-03-09 17:26:00,
2013-03-09 12:30:00,53.1,41.2,30.20,NE,45,0.0,0.0,64,0.00,CLR,SCT,0.00,WeatherDisplay:10.37,2013-03-09 17:30:00,
2013-03-09 12:32:00,53.2,40.9,30.20,NE,45,0.0,0.0,63,0.00,CLR,SCT,0.00,WeatherDisplay:10.37,2013-03-09 17:32:00,
2013-03-09 12:36:00,53.6,40.9,30.20,NE,45,0.0,0.0,62,0.00,CLR,SCT,0.00,WeatherDisplay:10.37,2013-03-09 17:36:00,
2013-03-09 12:37:00,53.6,40.9,30.20,NE,45,0.0,0.2,62,0.00,CLR,SCT,0.00,WeatherDisplay:10.37,2013-03-09 17:37:00,
2013-03-09 12:38:00,53.8,41.1,30.20,NE,45,1.1,0.0,62,0.00,CLR,SCT,0.00,WeatherDisplay:10.37,2013-03-09 17:38:00,
2013-03-09 12:42:00,54.1,41.4,30.20,NE,51,0.0,0.0,62,0.00,CLR,SCT,0.00,WeatherDisplay:10.37,2013-03-09 17:42:00,
2013-03-09 12:45:00,54.2,40.6,30.20,NE,54,2.3,2.3,60,0.00,CLR,SCT,0.00,WeatherDisplay:10.37,2013-03-09 17:45:00,
2013-03-09 12:48:00,54.5,41.3,30.20,ENE,67,2.3,2.3,61,0.00,CLR,SCT,0.00,WeatherDisplay:10.37,2013-03-09 17:48:00,
2013-03-09 12:52:00,54.7,41.1,30.20,ENE,67,0.0,0.0,60,0.00,CLR,SCT,0.00,WeatherDisplay:10.37,2013-03-09 17:52:00,
2013-03-09 12:55:00,54.8,41.2,30.19,ENE,67,1.0,0.0,60,0.00,CLR,SCT,0.00,WeatherDisplay:10.37,2013-03-09 17:55:00,
2013-03-09 12:57:00,55.0,41.4,30.19,ENE,67,0.0,0.2,60,0.00,CLR,SCT,0.00,WeatherDisplay:10.37,2013-03-09 17:57:00,
2013-03-09 12:58:00,55.1,41.5,30.19,SSE,151,2.0,2.0,60,0.00,CLR,SCT,0.00,WeatherDisplay:10.37,2013-03-09 17:58:00,
2013-03-09 13:03:00,55.6,41.9,30.19,SSE,151,1.0,0.0,60,0.00,CLR,SCT,0.00,WeatherDisplay:10.37,2013-03-09 18:03:00,
2013-03-09 13:04:00,55.7,40.7,30.18,SSE,151,1.1,1.1,57,0.00,CLR,SCT,0.00,WeatherDisplay:10.37,2013-03-09 18:04:00,
2013-03-09 13:07:00,56.0,41.4,30.18,SSE,151,0.0,0.0,58,0.00,CLR,SCT,0.00,WeatherDisplay:10.37,2013-03-09 18:07:00,
2013-03-09 13:09:00,56.2,42.1,30.18,SSE,150,0.0,0.0,59,0.00,CLR,SCT,0.00,WeatherDisplay:10.37,2013-03-09 18:09:00,
2013-03-09 13:13:00,56.6,42.4,30.18,SSE,151,0.0,0.0,59,0.00,CLR,SCT,0.00,WeatherDisplay:10.37,2013-03-09 18:13:00,
2013-03-09 13:15:00,56.7,42.1,30.17,SSE,151,0.0,0.0,58,0.00,CLR,SCT,0.00,WeatherDisplay:10.37,2013-03-09 18:15:00,
2013-03-09 13:16:00,56.9,42.3,30.17,SSE,151,0.0,0.0,58,0.00,CLR,SCT,0.00,WeatherDisplay:10.37,2013-03-09 18:16:00,
2013-03-09 13:18:00,57.0,41.9,30.17,South,187,3.5,3.5,57,0.00,CLR,SCT,0.00,WeatherDisplay:10.37,2013-03-09 18:18:00,
2013-03-09 13:21:00,57.2,42.1,30.17,South,187,0.0,0.0,57,0.00,CLR,SCT,0.00,WeatherDisplay:10.37,2013-03-09 18:21:00,
2013-03-09 13:22:00,57.3,42.2,30.17,South,187,0.0,0.0,57,0.00,CLR,SCT,0.00,WeatherDisplay:10.37,2013-03-09 18:22:00,
2013-03-09 13:23:00,57.3,41.7,30.17,South,187,0.0,0.0,56,0.00,CLR,SCT,0.00,WeatherDisplay:10.37,2013-03-09 18:23:00,
2013-03-09 13:27:00,57.6,42.0,30.16,South,190,3.5,3.5,56,0.00,CLR,SCT,0.00,WeatherDisplay:10.37,2013-03-09 18:27:00,
2013-03-09 13:30:00,57.8,41.3,30.16,WSW,245,4.6,4.6,54,0.00,CLR,SCT,0.00,WeatherDisplay:10.37,2013-03-09 18:30:00,
2013-03-09 13:32:00,58.0,40.5,30.16,WSW,244,3.5,3.5,52,0.00,CLR,SCT,0.00,WeatherDisplay:10.37,2013-03-09 18:32:00,
2013-03-09 13:35:00,58.1,41.5,30.16,West,266,1.1,0.0,54,0.00,CLR,SCT,0.00,WeatherDisplay:10.37,2013-03-09 18:35:00,
2013-03-09 13:39:00,58.4,39.8,30.16,West,264,3.5,3.5,50,0.00,CLR,SCT,0.00,WeatherDisplay:10.37,2013-03-09 18:39:00,
2013-03-09 13:40:00,58.4,39.8,30.16,West,263,5.8,5.8,50,0.00,CLR,SCT,0.00,WeatherDisplay:10.37,2013-03-09 18:40:00,
2013-03-09 13:44:00,58.7,40.1,30.16,West,264,3.5,3.5,50,0.00,CLR,SCT,0.00,WeatherDisplay:10.37,2013-03-09 18:44:00,
2013-03-09 13:48:00,58.9,39.2,30.16,West,264,2.3,2.3,48,0.00,CLR,SCT,0.00,WeatherDisplay:10.37,2013-03-09 18:48:00,
2013-03-09 13:50:00,59.0,39.9,30.16,West,264,3.5,3.5,49,0.00,CLR,SCT,0.00,WeatherDisplay:10.37,2013-03-09 18:50:00,
2013-03-09 13:55:00,59.5,38.7,30.15,WSW,250,3.5,3.5,46,0.00,CLR,SCT,0.00,WeatherDisplay:10.37,2013-03-09 18:55:00,
2013-03-09 13:56:00,59.5,38.7,30.15,WSW,250,6.0,6.0,46,0.00,CLR,SCT,0.00,WeatherDisplay:10.37,2013-03-09 18:56:00,
2013-03-09 14:00:00,59.8,39.5,30.15,WSW,252,2.3,2.3,47,0.00,CLR,SCT,0.00,WeatherDisplay:10.37,2013-03-09 19:00:00,
2013-03-09 14:01:00,59.8,40.1,30.14,WSW,252,2.0,0.0,48,0.00,CLR,SCT,0.00,WeatherDisplay:10.37,2013-03-09 19:01:00,
2013-03-09 14:06:00,60.1,39.2,30.15,WSW,252,3.5,3.5,46,0.00,CLR,SCT,0.00,WeatherDisplay:10.37,2013-03-09 19:06:00,
2013-03-09 14:08:00,60.1,39.8,30.15,WSW,252,3.5,3.5,47,0.00,CLR,SCT,0.00,WeatherDisplay:10.37,2013-03-09 19:08:00,
2013-03-09 14:12:00,60.4,40.6,30.14,WSW,252,2.3,2.3,48,0.00,CLR,SCT,0.00,WeatherDisplay:10.37,2013-03-09 19:12:00,
2013-03-09 14:13:00,60.4,40.6,30.14,WSW,252,0.0,0.0,48,0.00,CLR,SCT,0.00,WeatherDisplay:10.37,2013-03-09 19:13:00,
2013-03-09 14:18:00,60.9,40.5,30.14,WSW,254,3.5,3.5,47,0.00,CLR,SCT,0.00,WeatherDisplay:10.37,2013-03-09 19:18:00,
2013-03-09 14:19:00,60.9,40.5,30.14,WSW,254,2.3,2.3,47,0.00,CLR,SCT,0.00,WeatherDisplay:10.37,2013-03-09 19:19:00,
2013-03-09 14:24:00,61.3,40.3,30.13,West,273,3.5,3.5,46,0.00,CLR,SCT,0.00,WeatherDisplay:10.37,2013-03-09 19:24:00,
2013-03-09 14:25:00,61.3,40.3,30.13,West,273,2.3,2.3,46,0.00,CLR,SCT,0.00,WeatherDisplay:10.37,2013-03-09 19:25:00,
2013-03-09 14:29:00,61.6,41.2,30.13,West,273,2.3,2.3,47,0.00,CLR,SCT,0.00,WeatherDisplay:10.37,2013-03-09 19:29:00,
2013-03-09 14:30:00,61.6,41.2,30.13,West,273,2.3,2.3,47,0.00,CLR,SCT,0.00,WeatherDisplay:10.37,2013-03-09 19:30:00,
2013-03-09 14:34:00,61.8,40.2,30.13,West,273,2.3,2.3,45,0.00,CLR,SCT,0.00,WeatherDisplay:10.37,2013-03-09 19:34:00,
2013-03-09 14:35:00,61.8,40.8,30.13,West,273,1.1,0.0,46,0.00,CLR,SCT,0.00,WeatherDisplay:10.37,2013-03-09 19:35:00,
2013-03-09 14:37:00,62.0,41.0,30.12,West,273,0.0,0.0,46,0.00,CLR,SCT,0.00,WeatherDisplay:10.37,2013-03-09 19:37:00,
2013-03-09 14:41:00,62.1,41.1,30.12,West,273,0.0,0.0,46,0.00,CLR,SCT,0.00,WeatherDisplay:10.37,2013-03-09 19:41:00,
2013-03-09 14:46:00,62.4,40.8,30.11,West,274,0.0,0.0,45,0.00,CLR,SCT,0.00,WeatherDisplay:10.37,2013-03-09 19:46:00,
2013-03-09 14:51:00,62.4,40.8,30.11,NNE,20,3.5,3.5,45,0.00,CLR,SCT,0.00,WeatherDisplay:10.37,2013-03-09 19:51:00,
2013-03-09 14:53:00,62.4,40.8,30.11,NNE,20,0.0,0.0,45,0.00,CLR,SCT,0.00,WeatherDisplay:10.37,2013-03-09 19:53:00,
2013-03-09 14:57:00,62.6,40.4,30.11,NNE,20,1.1,1.1,44,0.00,CLR,SCT,0.00,WeatherDisplay:10.37,2013-03-09 19:57:00,
2013-03-09 15:02:00,62.7,40.5,30.11,NNE,19,3.5,3.5,44,0.00,CLR,SCT,0.00,WeatherDisplay:10.37,2013-03-09 20:02:00,
2013-03-09 15:04:00,62.9,39.4,30.11,NNE,19,3.5,3.5,42,0.00,CLR,SCT,0.00,WeatherDisplay:10.37,2013-03-09 20:04:00,
2013-03-09 15:07:00,62.9,40.6,30.11,NNE,19,0.0,0.1,44,0.00,CLR,SCT,0.00,WeatherDisplay:10.37,2013-03-09 20:07:00,
2013-03-09 15:09:00,63.1,40.8,30.11,NNE,19,2.3,0.0,44,0.00,CLR,SCT,0.00,WeatherDisplay:10.37,2013-03-09 20:09:00,
2013-03-09 15:11:00,63.2,40.3,30.11,NNE,19,3.5,3.5,43,0.00,CLR,SCT,0.00,WeatherDisplay:10.37,2013-03-09 20:11:00,
2013-03-09 15:14:00,63.4,40.5,30.11,NNE,19,1.1,1.1,43,0.00,CLR,SCT,0.00,WeatherDisplay:10.37,2013-03-09 20:14:00,
2013-03-09 15:19:00,63.5,40.6,30.11,NNE,19,0.0,0.0,43,0.00,CLR,SCT,0.00,WeatherDisplay:10.37,2013-03-09 20:19:00,
2013-03-09 15:25:00,63.7,40.2,30.11,NNE,19,3.5,3.5,42,0.00,CLR,SCT,0.00,WeatherDisplay:10.37,2013-03-09 20:25:00,
2013-03-09 15:26:00,63.7,39.5,30.11,NNE,19,3.5,3.5,41,0.00,CLR,SCT,0.00,WeatherDisplay:10.37,2013-03-09 20:26:00,
2013-03-09 15:31:00,63.9,40.3,30.11,NNE,19,0.0,0.0,42,0.00,CLR,SCT,0.00,WeatherDisplay:10.37,2013-03-09 20:31:00,
2013-03-09 15:36:00,64.0,38.5,30.11,West,265,4.0,4.0,39,0.00,CLR,SCT,0.00,WeatherDisplay:10.37,2013-03-09 20:36:00,
2013-03-09 15:37:00,64.0,39.2,30.11,West,265,3.5,3.5,40,0.00,CLR,SCT,0.00,WeatherDisplay:10.37,2013-03-09 20:37:00,
2013-03-09 15:43:00,64.2,39.4,30.11,West,264,3.5,3.5,40,0.00,CLR,SCT,0.00,WeatherDisplay:10.37,2013-03-09 20:43:00,
2013-03-09 15:44:00,64.2,38.7,30.11,West,265,3.5,3.5,39,0.00,CLR,SCT,0.00,WeatherDisplay:10.37,2013-03-09 20:44:00,
2013-03-09 15:45:00,64.2,38.7,30.11,NNW,348,3.5,3.5,39,0.00,CLR,SCT,0.00,WeatherDisplay:10.37,2013-03-09 20:45:00,
2013-03-09 15:50:00,64.3,39.4,30.11,NNW,348,3.5,3.5,40,0.00,CLR,SCT,0.00,WeatherDisplay:10.37,2013-03-09 20:50:00,
2013-03-09 15:51:00,64.3,38.8,30.11,NNW,348,3.5,3.5,39,0.00,CLR,SCT,0.00,WeatherDisplay:10.37,2013-03-09 20:51:00,
2013-03-09 15:52:00,64.3,38.8,30.11,NNW,348,3.5,3.5,39,0.00,CLR,SCT,0.00,WeatherDisplay:10.37,2013-03-09 20:52:00,
2013-03-09 15:56:00,64.5,39.6,30.11,NNW,348,0.0,0.0,40,0.00,CLR,SCT,0.00,WeatherDisplay:10.37,2013-03-09 20:56:00,
2013-03-09 15:58:00,64.5,39.6,30.11,NNW,348,0.0,0.0,40,0.00,CLR,SCT,0.00,WeatherDisplay:10.37,2013-03-09 20:58:00,
2013-03-09 16:03:00,64.7,39.8,30.11,NNW,348,1.0,1.0,40,0.00,CLR,SCT,0.00,WeatherDisplay:10.37,2013-03-09 21:03:00,
2013-03-09 16:06:00,64.8,39.2,30.11,NNW,348,2.3,2.3,39,0.00,CLR,SCT,0.00,WeatherDisplay:10.37,2013-03-09 21:06:00,
2013-03-09 16:07:00,65.0,39.4,30.11,NNW,348,3.5,3.5,39,0.00,CLR,SCT,0.00,WeatherDisplay:10.37,2013-03-09 21:07:00,
2013-03-09 16:12:00,65.2,38.3,30.11,West,274,5.8,5.8,37,0.00,CLR,SCT,0.00,WeatherDisplay:10.37,2013-03-09 21:12:00,
2013-03-09 16:13:00,65.0,37.4,30.11,West,274,3.5,3.5,36,0.00,CLR,SCT,0.00,WeatherDisplay:10.37,2013-03-09 21:13:00,
2013-03-09 16:18:00,65.0,38.1,30.11,West,275,4.6,4.6,37,0.00,CLR,SCT,0.00,WeatherDisplay:10.37,2013-03-09 21:18:00,
2013-03-09 16:20:00,64.8,37.9,30.11,West,270,4.0,4.0,37,0.00,CLR,SCT,0.00,WeatherDisplay:10.37,2013-03-09 21:20:00,
2013-03-09 16:23:00,64.7,37.1,30.11,West,269,4.6,4.6,36,0.00,CLR,SCT,0.00,WeatherDisplay:10.37,2013-03-09 21:23:00,
2013-03-09 16:26:00,64.5,36.9,30.11,West,269,2.3,2.3,36,0.00,CLR,SCT,0.00,WeatherDisplay:10.37,2013-03-09 21:26:00,
2013-03-09 16:27:00,64.5,36.9,30.11,NW,315,2.3,2.3,36,0.00,CLR,SCT,0.00,WeatherDisplay:10.37,2013-03-09 21:27:00,
2013-03-09 16:32:00,64.5,36.2,30.11,North,360,5.8,5.8,35,0.00,CLR,SCT,0.00,WeatherDisplay:10.37,2013-03-09 21:32:00,
2013-03-09 16:33:00,64.5,36.9,30.11,North,360,2.3,2.3,36,0.00,CLR,SCT,0.00,WeatherDisplay:10.37,2013-03-09 21:33:00,
2013-03-09 16:34:00,64.5,36.9,30.11,North,360,3.5,3.5,36,0.00,CLR,SCT,0.00,WeatherDisplay:10.37,2013-03-09 21:34:00,
2013-03-09 16:36:00,64.5,36.9,30.11,North,360,2.3,2.3,36,0.00,CLR,SCT,0.00,WeatherDisplay:10.37,2013-03-09 21:36:00,
2013-03-09 16:39:00,64.5,36.9,30.11,North,360,1.1,1.1,36,0.00,CLR,SCT,0.00,WeatherDisplay:10.37,2013-03-09 21:39:00,
2013-03-09 16:42:00,64.5,36.2,30.11,North,360,1.1,1.1,35,0.00,CLR,SCT,0.00,WeatherDisplay:10.37,2013-03-09 21:42:00,
2013-03-09 16:44:00,64.5,36.2,30.11,North,360,0.0,0.0,35,0.00,CLR,SCT,0.00,WeatherDisplay:10.37,2013-03-09 21:44:00,
2013-03-09 16:46:00,64.5,36.9,30.11,North,360,0.0,0.0,36,0.00,CLR,SCT,0.00,WeatherDisplay:10.37,2013-03-09 21:46:00,
2013-03-09 16:48:00,64.5,36.2,30.11,North,360,0.0,0.0,35,0.00,CLR,SCT,0.00,WeatherDisplay:10.37,2013-03-09 21:48:00,
2013-03-09 16:51:00,64.5,36.9,30.11,North,360,1.1,1.1,36,0.00,CLR,SCT,0.00,WeatherDisplay:10.37,2013-03-09 21:51:00,
2013-03-09 16:52:00,64.5,36.2,30.11,North,5,3.0,3.0,35,0.00,CLR,SCT,0.00,WeatherDisplay:10.37,2013-03-09 21:52:00,
2013-03-09 16:53:00,64.5,36.2,30.11,North,5,3.5,3.5,35,0.00,CLR,SCT,0.00,WeatherDisplay:10.37,2013-03-09 21:53:00,
2013-03-09 16:56:00,64.3,36.0,30.10,North,5,0.0,0.0,35,0.00,CLR,SCT,0.00,WeatherDisplay:10.37,2013-03-09 21:56:00,
2013-03-09 16:58:00,64.3,36.0,30.10,North,5,0.0,0.0,35,0.00,CLR,SCT,0.00,WeatherDisplay:10.37,2013-03-09 21:58:00,
2013-03-09 17:00:00,64.2,36.0,30.10,North,5,0.0,0.0,35,0.00,CLR,SCT,0.00,WeatherDisplay:10.37,2013-03-09 22:00:00,
2013-03-09 17:03:00,64.0,35.8,30.10,North,5,1.1,0.0,35,0.00,CLR,SCT,0.00,WeatherDisplay:10.37,2013-03-09 22:03:00,
2013-03-09 17:04:00,64.0,35.8,30.10,North,5,0.0,0.0,35,0.00,CLR,SCT,0.00,WeatherDisplay:10.37,2013-03-09 22:04:00,
2013-03-09 17:05:00,64.0,35.8,30.10,North,5,0.0,0.0,35,0.00,CLR,SCT,0.00,WeatherDisplay:10.37,2013-03-09 22:05:00,
2013-03-09 17:08:00,63.9,35.0,30.10,North,5,2.3,2.3,34,0.00,CLR,SCT,0.00,WeatherDisplay:10.37,2013-03-09 22:08:00,
2013-03-09 17:09:00,63.9,35.0,30.10,North,5,2.3,2.3,34,0.00,CLR,SCT,0.00,WeatherDisplay:10.37,2013-03-09 22:09:00,
2013-03-09 17:10:00,63.7,34.8,30.10,North,5,1.1,0.0,34,0.00,CLR,SCT,0.00,WeatherDisplay:10.37,2013-03-09 22:10:00,
2013-03-09 17:11:00,63.7,34.8,30.10,North,5,1.1,1.1,34,0.00,CLR,SCT,0.00,WeatherDisplay:10.37,2013-03-09 22:11:00,
2013-03-09 17:13:00,63.5,34.6,30.10,North,5,1.0,0.0,34,0.00,CLR,SCT,0.00,WeatherDisplay:10.37,2013-03-09 22:13:00,
2013-03-09 17:14:00,63.5,34.6,30.10,North,5,1.1,1.1,34,0.00,CLR,SCT,0.00,WeatherDisplay:10.37,2013-03-09 22:14:00,
2013-03-09 17:16:00,63.5,34.6,30.10,North,5,0.0,0.0,34,0.00,CLR,SCT,0.00,WeatherDisplay:10.37,2013-03-09 22:16:00,
2013-03-09 17:17:00,63.4,35.2,30.10,North,5,0.0,0.0,35,0.00,CLR,SCT,0.00,WeatherDisplay:10.37,2013-03-09 22:17:00,
2013-03-09 17:21:00,63.4,35.2,30.09,North,5,0.0,0.0,35,0.00,CLR,SCT,0.00,WeatherDisplay:10.37,2013-03-09 22:21:00,
2013-03-09 17:22:00,63.4,35.2,30.09,NE,34,2.0,2.0,35,0.00,CLR,SCT,0.00,WeatherDisplay:10.37,2013-03-09 22:22:00,
2013-03-09 17:26:00,63.2,34.3,30.09,NE,48,1.1,1.1,34,0.00,CLR,SCT,0.00,WeatherDisplay:10.37,2013-03-09 22:26:00,
2013-03-09 17:27:00,63.2,35.1,30.09,NE,48,0.0,0.0,35,0.00,CLR,SCT,0.00,WeatherDisplay:10.37,2013-03-09 22:27:00,
2013-03-09 17:30:00,63.1,35.0,30.09,NE,48,0.0,0.0,35,0.00,CLR,SCT,0.00,WeatherDisplay:10.37,2013-03-09 22:30:00,
2013-03-09 17:32:00,63.1,35.0,30.09,NE,48,0.0,0.0,35,0.00,CLR,SCT,0.00,WeatherDisplay:10.37,2013-03-09 22:32:00,
2013-03-09 17:34:00,63.1,35.0,30.09,NE,48,0.0,0.0,35,0.00,CLR,SCT,0.00,WeatherDisplay:10.37,2013-03-09 22:34:00,
2013-03-09 17:38:00,63.1,35.0,30.09,NE,48,1.1,1.1,35,0.00,CLR,SCT,0.00,WeatherDisplay:10.37,2013-03-09 22:38:00,
2013-03-09 17:39:00,62.9,34.8,30.09,NE,48,0.0,0.0,35,0.00,CLR,SCT,0.00,WeatherDisplay:10.37,2013-03-09 22:39:00,
2013-03-09 17:41:00,62.9,34.8,30.09,NE,48,0.0,0.0,35,0.00,CLR,SCT,0.00,WeatherDisplay:10.37,2013-03-09 22:41:00,
2013-03-09 17:44:00,62.9,34.8,30.10,NE,48,0.0,0.0,35,0.00,CLR,SCT,0.00,WeatherDisplay:10.37,2013-03-09 22:44:00,
2013-03-09 17:45:00,62.9,34.8,30.10,NE,48,0.0,0.0,35,0.00,CLR,SCT,0.00,WeatherDisplay:10.37,2013-03-09 22:45:00,
2013-03-09 17:46:00,62.9,34.1,30.10,NE,48,0.0,0.0,34,0.00,CLR,SCT,0.00,WeatherDisplay:10.37,2013-03-09 22:46:00,
2013-03-09 17:47:00,62.9,34.1,30.10,NE,48,0.0,0.0,34,0.00,CLR,SCT,0.00,WeatherDisplay:10.37,2013-03-09 22:47:00,
2013-03-09 17:52:00,62.7,34.6,30.10,NE,48,2.3,2.3,35,0.00,CLR,SCT,0.00,WeatherDisplay:10.37,2013-03-09 22:52:00,
2013-03-09 17:53:00,62.6,34.5,30.10,NE,48,2.3,2.3,35,0.00,CLR,SCT,0.00,WeatherDisplay:10.37,2013-03-09 22:53:00,
2013-03-09 17:58:00,62.3,33.6,30.10,NE,48,1.1,0.0,34,0.00,CLR,SCT,0.00,WeatherDisplay:10.37,2013-03-09 22:58:00,
2013-03-09 18:01:00,62.1,33.4,30.10,NE,48,0.0,0.0,34,0.00,CLR,SCT,0.00,WeatherDisplay:10.37,2013-03-09 23:01:00,
2013-03-09 18:06:00,61.8,33.8,30.10,NE,48,0.0,0.0,35,0.00,CLR,SCT,0.00,WeatherDisplay:10.37,2013-03-09 23:06:00,
2013-03-09 18:08:00,61.8,34.5,30.10,NE,48,0.0,0.0,36,0.00,CLR,SCT,0.00,WeatherDisplay:10.37,2013-03-09 23:08:00,
2013-03-09 18:11:00,61.6,34.4,30.10,NE,48,0.0,0.0,36,0.00,CLR,SCT,0.00,WeatherDisplay:10.37,2013-03-09 23:11:00,
2013-03-09 18:13:00,61.3,34.8,30.10,NE,48,0.0,0.0,37,0.00,CLR,SCT,0.00,WeatherDisplay:10.37,2013-03-09 23:13:00,
2013-03-09 18:18:00,61.0,35.2,30.11,NE,48,0.0,0.0,38,0.00,CLR,SCT,0.00,WeatherDisplay:10.37,2013-03-09 23:18:00,
2013-03-09 18:21:00,60.5,35.4,30.11,NE,48,0.0,0.0,39,0.00,CLR,SCT,0.00,WeatherDisplay:10.37,2013-03-09 23:21:00,
2013-03-09 18:23:00,60.1,35.0,30.11,NNE,30,0.0,0.0,39,0.00,CLR,SCT,0.00,WeatherDisplay:10.37,2013-03-09 23:23:00,
2013-03-09 18:27:00,59.3,34.3,30.11,NNE,30,0.0,0.0,39,0.00,CLR,SCT,0.00,WeatherDisplay:10.37,2013-03-09 23:27:00,
2013-03-09 18:31:00,58.7,34.4,30.12,NNE,30,0.0,0.0,40,0.00,CLR,SCT,0.00,WeatherDisplay:10.37,2013-03-09 23:31:00,
2013-03-09 18:33:00,58.3,34.7,30.12,NNE,30,0.0,0.0,41,0.00,CLR,SCT,0.00,WeatherDisplay:10.37,2013-03-09 23:33:00,
2013-03-09 18:36:00,57.6,34.1,30.12,NNE,30,0.0,0.0,41,0.00,CLR,SCT,0.00,WeatherDisplay:10.37,2013-03-09 23:36:00,
2013-03-09 18:38:00,57.3,33.8,30.12,NNE,30,0.0,0.0,41,0.00,CLR,SCT,0.00,WeatherDisplay:10.37,2013-03-09 23:38:00,
2013-03-09 18:43:00,56.5,34.3,30.12,NNE,30,0.0,0.0,43,0.00,CLR,SCT,0.00,WeatherDisplay:10.37,2013-03-09 23:43:00,
2013-03-09 18:44:00,56.3,34.1,30.12,NNE,30,0.0,0.0,43,0.00,CLR,SCT,0.00,WeatherDisplay:10.37,2013-03-09 23:44:00,
2013-03-09 18:48:00,55.6,33.4,30.12,NNE,30,0.0,0.0,43,0.00,CLR,SCT,0.00,WeatherDisplay:10.37,2013-03-09 23:48:00,
2013-03-09 18:50:00,55.1,33.0,30.12,NNE,30,0.0,0.0,43,0.00,CLR,SCT,0.00,WeatherDisplay:10.37,2013-03-09 23:50:00,
2013-03-09 18:54:00,54.2,32.7,30.12,NNE,30,0.0,0.0,44,0.00,CLR,SCT,0.00,WeatherDisplay:10.37,2013-03-09 23:54:00,
2013-03-09 18:56:00,53.8,32.4,30.13,NNE,30,0.0,0.0,44,0.00,CLR,SCT,0.00,WeatherDisplay:10.37,2013-03-09 23:56:00,
2013-03-09 19:00:00,52.9,32.1,30.13,NNE,30,0.0,0.0,45,0.00,CLR,SCT,0.00,WeatherDisplay:10.37,2013-03-10 00:00:00,
2013-03-09 19:01:00,52.8,32.0,30.13,NNE,30,0.0,0.0,45,0.00,CLR,SCT,0.00,WeatherDisplay:10.37,2013-03-10 00:01:00,
2013-03-09 19:06:00,51.1,31.0,30.12,NNE,30,0.0,0.0,46,0.00,CLR,SCT,0.00,WeatherDisplay:10.37,2013-03-10 00:06:00,
2013-03-09 19:07:00,50.8,30.7,30.12,NNE,30,0.0,0.0,46,0.00,CLR,SCT,0.00,WeatherDisplay:10.37,2013-03-10 00:07:00,
2013-03-09 19:12:00,49.2,29.3,30.13,NNE,30,0.0,0.0,46,0.00,CLR,SCT,0.00,WeatherDisplay:10.37,2013-03-10 00:12:00,
2013-03-09 19:14:00,48.6,28.7,30.13,NNE,30,0.0,0.0,46,0.00,CLR,SCT,0.00,WeatherDisplay:10.37,2013-03-10 00:14:00,
2013-03-09 19:19:00,47.9,29.6,30.13,NNE,30,0.0,0.0,49,0.00,CLR,SCT,0.00,WeatherDisplay:10.37,2013-03-10 00:19:00,
2013-03-09 19:20:00,47.7,29.5,30.13,NNE,30,0.0,0.0,49,0.00,CLR,SCT,0.00,WeatherDisplay:10.37,2013-03-10 00:20:00,
2013-03-09 19:25:00,47.3,29.6,30.13,NNE,30,0.0,0.0,50,0.00,CLR,SCT,0.00,WeatherDisplay:10.37,2013-03-10 00:25:00,
2013-03-09 19:26:00,47.1,29.4,30.13,NNE,30,0.0,0.0,50,0.00,CLR,SCT,0.00,WeatherDisplay:10.37,2013-03-10 00:26:00,
2013-03-09 19:31:00,46.7,29.0,30.13,NNE,30,0.0,0.0,50,0.00,CLR,SCT,0.00,WeatherDisplay:10.37,2013-03-10 00:31:00,
2013-03-09 19:32:00,46.5,29.3,30.13,NNE,30,0.0,0.0,51,0.00,CLR,SCT,0.00,WeatherDisplay:10.37,2013-03-10 00:32:00,
2013-03-09 19:36:00,46.0,29.3,30.13,NNE,30,0.0,0.0,52,0.00,CLR,SCT,0.00,WeatherDisplay:10.37,2013-03-10 00:36:00,
2013-03-09 19:37:00,45.8,29.2,30.13,NNE,30,0.0,0.0,52,0.00,CLR,SCT,0.00,WeatherDisplay:10.37,2013-03-10 00:37:00,
2013-03-09 19:41:00,45.2,29.5,30.12,NNE,30,0.0,0.0,54,0.00,CLR,SCT,0.00,WeatherDisplay:10.37,2013-03-10 00:41:00,
2013-03-09 19:46:00,44.8,30.0,30.12,NNE,30,0.0,0.0,56,0.00,CLR,SCT,0.00,WeatherDisplay:10.37,2013-03-10 00:46:00,
2013-03-09 19:50:00,44.6,30.7,30.12,NNE,32,0.0,0.0,58,0.00,CLR,SCT,0.00,WeatherDisplay:10.37,2013-03-10 00:50:00,
2013-03-09 19:51:00,44.6,30.7,30.12,NNE,32,0.0,0.0,58,0.00,CLR,SCT,0.00,WeatherDisplay:10.37,2013-03-10 00:51:00,
2013-03-09 19:55:00,44.8,31.3,30.12,NNE,32,0.0,0.0,59,0.00,CLR,SCT,0.00,WeatherDisplay:10.37,2013-03-10 00:55:00,
2013-03-09 19:56:00,44.8,31.3,30.12,NNE,32,0.0,0.0,59,0.00,CLR,SCT,0.00,WeatherDisplay:10.37,2013-03-10 00:56:00,
2013-03-09 20:01:00,44.8,31.3,30.12,NNE,32,0.0,0.0,59,0.00,,SCT,0.00,WeatherDisplay:10.37,2013-03-10 01:01:00,
2013-03-09 20:02:00,44.6,31.1,30.12,NNE,32,0.0,0.0,59,0.00,,SCT,0.00,WeatherDisplay:10.37,2013-03-10 01:02:00,
2013-03-09 20:04:00,44.6,31.1,30.12,NNE,32,0.0,0.0,59,0.00,,SCT,0.00,WeatherDisplay:10.37,2013-03-10 01:04:00,
2013-03-09 20:05:00,44.6,30.7,30.12,NNE,32,0.0,0.0,58,0.00,,SCT,0.00,WeatherDisplay:10.37,2013-03-10 01:05:00,
2013-03-09 20:09:00,44.3,30.0,30.11,NNE,32,0.0,0.0,57,0.00,,SCT,0.00,WeatherDisplay:10.37,2013-03-10 01:09:00,
2013-03-09 20:10:00,44.3,30.4,30.11,NNE,32,0.0,0.0,58,0.00,,SCT,0.00,WeatherDisplay:10.37,2013-03-10 01:10:00,
2013-03-09 20:11:00,44.3,30.4,30.11,NNE,32,0.0,0.0,58,0.00,,SCT,0.00,WeatherDisplay:10.37,2013-03-10 01:11:00,
2013-03-09 20:15:00,43.9,30.5,30.11,NNE,32,0.0,0.0,59,0.00,,SCT,0.00,WeatherDisplay:10.37,2013-03-10 01:15:00,
2013-03-09 20:16:00,43.8,30.4,30.11,NNE,32,0.0,0.0,59,0.00,,SCT,0.00,WeatherDisplay:10.37,2013-03-10 01:16:00,
2013-03-09 20:18:00,43.5,30.1,30.11,NNE,32,0.0,0.0,59,0.00,,SCT,0.00,WeatherDisplay:10.37,2013-03-10 01:18:00,
2013-03-09 20:20:00,43.2,29.4,30.11,NNE,32,0.0,0.0,58,0.00,,SCT,0.00,WeatherDisplay:10.37,2013-03-10 01:20:00,
2013-03-09 20:24:00,42.9,29.1,30.11,NNE,32,0.0,0.0,58,0.00,,SCT,0.00,WeatherDisplay:10.37,2013-03-10 01:24:00,
2013-03-09 20:26:00,42.8,29.0,30.12,NNE,32,0.0,0.0,58,0.00,,SCT,0.00,WeatherDisplay:10.37,2013-03-10 01:26:00,
2013-03-09 20:30:00,42.6,28.8,30.12,NNE,32,0.0,0.0,58,0.00,,SCT,0.00,WeatherDisplay:10.37,2013-03-10 01:30:00,
2013-03-09 20:31:00,42.6,28.8,30.12,NNE,32,0.0,0.0,58,0.00,,SCT,0.00,WeatherDisplay:10.37,2013-03-10 01:31:00,
2013-03-09 20:35:00,42.5,28.8,30.12,NNE,32,0.0,0.0,58,0.00,,SCT,0.00,WeatherDisplay:10.37,2013-03-10 01:35:00,
2013-03-09 20:36:00,42.5,28.8,30.12,NNE,32,0.0,0.0,58,0.00,,SCT,0.00,WeatherDisplay:10.37,2013-03-10 01:36:00,
2013-03-09 20:41:00,42.5,29.2,30.12,NNE,32,0.0,0.0,59,0.00,,SCT,0.00,WeatherDisplay:10.37,2013-03-10 01:41:00,
2013-03-09 20:42:00,42.5,29.2,30.12,NNE,32,0.0,0.0,59,0.00,,SCT,0.00,WeatherDisplay:10.37,2013-03-10 01:42:00,
2013-03-09 20:47:00,42.3,29.0,30.13,NNE,32,0.0,0.0,59,0.00,,SCT,0.00,WeatherDisplay:10.37,2013-03-10 01:47:00,
2013-03-09 20:48:00,42.3,29.4,30.13,NNE,32,0.0,0.0,60,0.00,,SCT,0.00,WeatherDisplay:10.37,2013-03-10 01:48:00,
2013-03-09 20:52:00,42.2,29.7,30.13,NNE,32,0.0,0.0,61,0.00,,SCT,0.00,WeatherDisplay:10.37,2013-03-10 01:52:00,
2013-03-09 20:54:00,42.2,29.7,30.13,NNE,32,0.0,0.0,61,0.00,,SCT,0.00,WeatherDisplay:10.37,2013-03-10 01:54:00,
2013-03-09 20:58:00,42.1,29.6,30.13,NNE,32,0.0,0.0,61,0.00,,SCT,0.00,WeatherDisplay:10.37,2013-03-10 01:58:00,
2013-03-09 21:03:00,41.8,30.1,30.13,NNE,32,0.0,0.0,63,0.00,,SCT,0.00,WeatherDisplay:10.37,2013-03-10 02:03:00,
2013-03-09 21:04:00,41.8,30.1,30.13,NNE,32,0.0,0.0,63,0.00,,SCT,0.00,WeatherDisplay:10.37,2013-03-10 02:04:00,
2013-03-09 21:09:00,41.5,29.4,30.12,NNE,32,0.0,0.0,62,0.00,,SCT,0.00,WeatherDisplay:10.37,2013-03-10 02:09:00,
2013-03-09 21:10:00,41.3,29.3,30.12,NNE,32,0.0,0.0,62,0.00,,SCT,0.00,WeatherDisplay:10.37,2013-03-10 02:10:00,
2013-03-09 21:14:00,41.3,29.3,30.12,NNE,32,0.0,0.0,62,0.00,,SCT,0.00,WeatherDisplay:10.37,2013-03-10 02:14:00,
2013-03-09 21:15:00,41.3,30.0,30.13,NNE,32,0.0,0.0,64,0.00,,SCT,0.00,WeatherDisplay:10.37,2013-03-10 02:15:00,
2013-03-09 21:17:00,41.3,29.6,30.13,NNE,32,0.0,0.0,63,0.00,,SCT,0.00,WeatherDisplay:10.37,2013-03-10 02:17:00,
2013-03-09 21:20:00,41.5,29.4,30.13,NNE,32,0.0,0.0,62,0.00,,SCT,0.00,WeatherDisplay:10.37,2013-03-10 02:20:00,
2013-03-09 21:25:00,41.5,29.4,30.13,NNE,32,0.0,0.0,62,0.00,,SCT,0.00,WeatherDisplay:10.37,2013-03-10 02:25:00,
2013-03-09 21:31:00,41.8,30.5,30.14,NNE,32,0.0,0.0,64,0.00,,SCT,0.00,WeatherDisplay:10.37,2013-03-10 02:31:00,
2013-03-09 21:32:00,41.8,30.9,30.14,NNE,32,0.0,0.0,65,0.00,,SCT,0.00,WeatherDisplay:10.37,2013-03-10 02:32:00,
2013-03-09 21:34:00,41.9,31.0,30.14,NNE,32,0.0,0.0,65,0.00,,SCT,0.00,WeatherDisplay:10.37,2013-03-10 02:34:00,
2013-03-09 21:38:00,41.9,31.0,30.14,NNE,32,0.0,0.0,65,0.00,,SCT,0.00,WeatherDisplay:10.37,2013-03-10 02:38:00,
2013-03-09 21:43:00,41.9,30.6,30.14,NNE,32,0.0,0.0,64,0.00,,SCT,0.00,WeatherDisplay:10.37,2013-03-10 02:43:00,
2013-03-09 21:45:00,41.9,31.0,30.13,NNE,32,0.0,0.0,65,0.00,,SCT,0.00,WeatherDisplay:10.37,2013-03-10 02:45:00,
2013-03-09 21:46:00,41.9,31.0,30.14,NNE,32,0.0,0.0,65,0.00,,SCT,0.00,WeatherDisplay:10.37,2013-03-10 02:46:00,
2013-03-09 21:48:00,42.1,31.2,30.14,NNE,32,0.0,0.0,65,0.00,,SCT,0.00,WeatherDisplay:10.37,2013-03-10 02:48:00,
2013-03-09 21:51:00,42.2,31.6,30.14,NNE,32,0.0,0.0,66,0.00,,SCT,0.00,WeatherDisplay:10.37,2013-03-10 02:51:00,
2013-03-09 21:53:00,42.2,31.6,30.14,NNE,32,0.0,0.0,66,0.00,,SCT,0.00,WeatherDisplay:10.37,2013-03-10 02:53:00,
2013-03-09 21:54:00,42.2,31.6,30.14,NNE,32,0.0,0.0,66,0.00,,SCT,0.00,WeatherDisplay:10.37,2013-03-10 02:54:00,
2013-03-09 21:58:00,42.3,31.7,30.14,NNE,32,0.0,0.0,66,0.00,,SCT,0.00,WeatherDisplay:10.37,2013-03-10 02:58:00,
2013-03-09 22:00:00,42.3,31.7,30.14,NNE,32,0.0,0.0,66,0.00,,SCT,0.00,WeatherDisplay:10.37,2013-03-10 03:00:00,
2013-03-09 22:01:00,42.5,32.3,30.13,NNE,32,0.0,0.0,67,0.00,,SCT,0.00,WeatherDisplay:10.37,2013-03-10 03:01:00,
2013-03-09 22:03:00,42.6,32.4,30.13,NNE,32,0.0,0.0,67,0.00,,SCT,0.00,WeatherDisplay:10.37,2013-03-10 03:03:00,
2013-03-09 22:06:00,42.8,32.6,30.12,NNE,32,0.0,0.0,67,0.00,,SCT,0.00,WeatherDisplay:10.37,2013-03-10 03:06:00,
2013-03-09 22:08:00,42.8,32.2,30.13,NNE,32,0.0,0.0,66,0.00,,SCT,0.00,WeatherDisplay:10.37,2013-03-10 03:08:00,
2013-03-09 22:09:00,42.9,32.3,30.13,NNE,32,0.0,0.0,66,0.00,,SCT,0.00,WeatherDisplay:10.37,2013-03-10 03:09:00,
2013-03-09 22:14:00,43.1,32.5,30.13,NNE,32,0.0,0.0,66,0.00,,SCT,0.00,WeatherDisplay:10.37,2013-03-10 03:14:00,
2013-03-09 22:15:00,43.1,32.5,30.13,NNE,32,0.0,0.0,66,0.00,,SCT,0.00,WeatherDisplay:10.37,2013-03-10 03:15:00,
2013-03-09 22:18:00,43.2,32.6,30.13,NNE,32,0.0,0.0,66,0.00,,SCT,0.00,WeatherDisplay:10.37,2013-03-10 03:18:00,
2013-03-09 22:20:00,43.2,32.6,30.12,NNE,32,0.0,0.0,66,0.00,,SCT,0.00,WeatherDisplay:10.37,2013-03-10 03:20:00,
2013-03-09 22:22:00,43.3,33.1,30.12,NNE,32,0.0,0.0,67,0.00,,SCT,0.00,WeatherDisplay:10.37,2013-03-10 03:22:00,
2013-03-09 22:23:00,43.3,33.1,30.12,NNE,32,0.0,0.0,67,0.00,,SCT,0.00,WeatherDisplay:10.37,2013-03-10 03:23:00,
2013-03-09 22:24:00,43.3,33.1,30.13,NNE,32,0.0,0.0,67,0.00,,SCT,0.00,WeatherDisplay:10.37,2013-03-10 03:24:00,
2013-03-09 22:27:00,43.3,33.1,30.13,NNE,32,0.0,0.0,67,0.00,,SCT,0.00,WeatherDisplay:10.37,2013-03-10 03:27:00,
2013-03-09 22:29:00,43.3,33.1,30.13,NNE,32,0.0,0.0,67,0.00,,SCT,0.00,WeatherDisplay:10.37,2013-03-10 03:29:00,
2013-03-09 22:31:00,43.5,33.3,30.13,NNE,32,0.0,0.0,67,0.00,,SCT,0.00,WeatherDisplay:10.37,2013-03-10 03:31:00,
2013-03-09 22:33:00,43.5,33.3,30.13,NNE,32,0.0,0.0,67,0.00,,SCT,0.00,WeatherDisplay:10.37,2013-03-10 03:33:00,
2013-03-09 22:36:00,43.5,33.3,30.13,NNE,32,0.0,0.0,67,0.00,,SCT,0.00,WeatherDisplay:10.37,2013-03-10 03:36:00,
2013-03-09 22:39:00,43.5,33.3,30.13,NNE,32,0.0,0.0,67,0.00,,SCT,0.00,WeatherDisplay:10.37,2013-03-10 03:39:00,
2013-03-09 22:40:00,43.5,33.3,30.13,NNE,32,0.0,0.0,67,0.00,,SCT,0.00,WeatherDisplay:10.37,2013-03-10 03:40:00,
2013-03-09 22:41:00,43.6,33.4,30.13,NNE,32,0.0,0.0,67,0.00,,SCT,0.00,WeatherDisplay:10.37,2013-03-10 03:41:00,
2013-03-09 22:43:00,43.6,33.4,30.13,NNE,32,0.0,0.0,67,0.00,,SCT,0.00,WeatherDisplay:10.37,2013-03-10 03:43:00,
2013-03-09 22:48:00,43.6,33.4,30.13,NNE,32,0.0,0.0,67,0.00,,SCT,0.00,WeatherDisplay:10.37,2013-03-10 03:48:00,
2013-03-09 22:49:00,43.6,33.4,30.13,NNE,32,0.0,0.0,67,0.00,,SCT,0.00,WeatherDisplay:10.37,2013-03-10 03:49:00,
2013-03-09 22:53:00,43.6,33.4,30.13,NNE,32,0.0,0.0,67,0.00,,SCT,0.00,WeatherDisplay:10.37,2013-03-10 03:53:00,
2013-03-09 22:54:00,43.6,33.4,30.13,NNE,32,0.0,0.0,67,0.00,,SCT,0.00,WeatherDisplay:10.37,2013-03-10 03:54:00,
2013-03-09 22:57:00,43.6,33.4,30.12,NNE,32,0.0,0.0,67,0.00,,SCT,0.00,WeatherDisplay:10.37,2013-03-10 03:57:00,
2013-03-09 22:59:00,43.6,33.4,30.12,NNE,32,0.0,0.0,67,0.00,,SCT,0.00,WeatherDisplay:10.37,2013-03-10 03:59:00,
2013-03-09 23:00:00,43.6,33.4,30.12,NNE,32,0.0,0.0,67,0.00,,SCT,0.00,WeatherDisplay:10.37,2013-03-10 04:00:00,
2013-03-09 23:02:00,43.6,33.4,30.12,NNE,32,0.0,0.0,67,0.00,,SCT,0.00,WeatherDisplay:10.37,2013-03-10 04:02:00,
2013-03-09 23:04:00,43.6,33.4,30.12,NNE,32,0.0,0.0,67,0.00,,SCT,0.00,WeatherDisplay:10.37,2013-03-10 04:04:00,
2013-03-09 23:06:00,43.6,33.7,30.12,NNE,32,0.0,0.0,68,0.00,,SCT,0.00,WeatherDisplay:10.37,2013-03-10 04:06:00,
2013-03-09 23:11:00,43.5,33.6,30.12,NNE,32,0.0,0.0,68,0.00,,SCT,0.00,WeatherDisplay:10.37,2013-03-10 04:11:00,
2013-03-09 23:12:00,43.5,33.6,30.12,NNE,32,0.0,0.0,68,0.00,,SCT,0.00,WeatherDisplay:10.37,2013-03-10 04:12:00,
2013-03-09 23:14:00,43.3,33.4,30.11,NNE,32,0.0,0.0,68,0.00,,SCT,0.00,WeatherDisplay:10.37,2013-03-10 04:14:00,
2013-03-09 23:19:00,43.2,33.3,30.11,NNE,32,0.0,0.0,68,0.00,,SCT,0.00,WeatherDisplay:10.37,2013-03-10 04:19:00,
2013-03-09 23:20:00,43.1,33.3,30.11,NNE,32,0.0,0.0,68,0.00,,SCT,0.00,WeatherDisplay:10.37,2013-03-10 04:20:00,
2013-03-09 23:23:00,42.9,33.1,30.11,NNE,32,0.0,0.0,68,0.00,,SCT,0.00,WeatherDisplay:10.37,2013-03-10 04:23:00,
2013-03-09 23:25:00,42.9,33.1,30.11,NNE,32,0.0,0.0,68,0.00,,SCT,0.00,WeatherDisplay:10.37,2013-03-10 04:25:00,
2013-03-09 23:28:00,42.6,32.8,30.10,NNE,32,0.0,0.0,68,0.00,,SCT,0.00,WeatherDisplay:10.37,2013-03-10 04:28:00,
2013-03-09 23:31:00,42.5,32.7,30.10,NNE,32,0.0,0.0,68,0.00,,SCT,0.00,WeatherDisplay:10.37,2013-03-10 04:31:00,
2013-03-09 23:33:00,42.2,32.4,30.11,NNE,32,0.0,0.0,68,0.00,,SCT,0.00,WeatherDisplay:10.37,2013-03-10 04:33:00,
2013-03-09 23:36:00,42.1,32.3,30.10,NNE,32,0.0,0.0,68,0.00,,SCT,0.00,WeatherDisplay:10.37,2013-03-10 04:36:00,
2013-03-09 23:39:00,41.9,32.5,30.11,NNE,32,0.0,0.0,69,0.00,,SCT,0.00,WeatherDisplay:10.37,2013-03-10 04:39:00,
2013-03-09 23:43:00,41.8,32.0,30.11,NNE,32,0.0,0.0,68,0.00,,SCT,0.00,WeatherDisplay:10.37,2013-03-10 04:43:00,
2013-03-09 23:47:00,41.6,31.8,30.11,NNE,32,0.0,0.0,68,0.00,,SCT,0.00,WeatherDisplay:10.37,2013-03-10 04:47:00,
2013-03-09 23:49:00,41.6,31.8,30.11,NNE,32,0.0,0.0,68,0.00,,SCT,0.00,WeatherDisplay:10.37,2013-03-10 04:49:00,
2013-03-09 23:52:00,41.6,32.2,30.11,NNE,32,0.0,0.0,69,0.00,,SCT,0.00,WeatherDisplay:10.37,2013-03-10 04:52:00,
2013-03-09 23:55:00,41.6,32.2,30.11,NNE,32,0.0,0.0,69,0.00,,SCT,0.00,WeatherDisplay:10.37,2013-03-10 04:55:00,
2013-03-09 23:58:00,41.5,32.1,30.10,NNE,32,0.0,0.0,69,0.00,,SCT,0.00,WeatherDisplay:10.37,2013-03-10 04:58:00,